Time,TemperatureF,DewpointF,PressureIn,WindDirection,WindDirectionDegrees,WindSpeedMPH,WindSpeedGustMPH,Humidity,HourlyPrecipIn,Conditions,Clouds,dailyrainin,SoftwareType,DateUTC
2013-06-10 00:00:00,63.7,63.7,29.70,SSE,162,0.0,0.0,100,0.00,,FEW090,0.28,VWS V14.01,2013-06-10 05:00:00,
2013-06-10 00:01:00,63.7,63.7,29.70,SSE,162,0.0,0.0,100,0.00,,FEW090,0.00,VWS V14.01,2013-06-10 05:01:00,
2013-06-10 00:02:00,63.7,63.7,29.70,SSE,162,2.7,3.1,100,0.00,,CLR,0.00,VWS V14.01,2013-06-10 05:02:00,
2013-06-10 00:05:00,63.7,63.7,29.70,SSE,162,0.0,3.1,100,0.00,,CLR,0.00,VWS V14.01,2013-06-10 05:05:00,
2013-06-10 00:06:00,63.7,63.7,29.70,SSE,159,3.6,3.6,100,0.00,,CLR,0.00,VWS V14.01,2013-06-10 05:06:00,
2013-06-10 00:07:00,63.9,63.9,29.70,SE,134,2.7,3.6,100,0.00,,CLR,0.00,VWS V14.01,2013-06-10 05:07:00,
2013-06-10 00:08:00,63.9,63.9,29.70,SSE,167,3.1,3.6,100,0.00,,CLR,0.00,VWS V14.01,2013-06-10 05:08:00,
2013-06-10 00:10:00,63.9,63.9,29.70,South,179,3.1,3.1,100,0.00,,CLR,0.00,VWS V14.01,2013-06-10 05:10:00,
2013-06-10 00:11:00,63.9,63.9,29.70,South,173,2.2,2.7,100,0.00,,CLR,0.00,VWS V14.01,2013-06-10 05:11:00,
2013-06-10 00:13:00,63.9,63.9,29.70,South,191,4.0,4.9,100,0.00,,CLR,0.00,VWS V14.01,2013-06-10 05:13:00,
2013-06-10 00:14:00,64.0,64.0,29.70,South,187,2.7,3.6,100,0.00,,CLR,0.00,VWS V14.01,2013-06-10 05:14:00,
2013-06-10 00:16:00,64.0,64.0,29.70,South,187,0.0,2.2,100,0.00,,CLR,0.00,VWS V14.01,2013-06-10 05:16:00,
2013-06-10 00:18:00,64.0,64.0,29.70,South,182,3.1,3.1,100,0.00,,CLR,0.00,VWS V14.01,2013-06-10 05:18:00,
2013-06-10 00:19:00,64.0,64.0,29.70,South,183,3.1,3.1,100,0.00,,CLR,0.00,VWS V14.01,2013-06-10 05:19:00,
2013-06-10 00:21:00,64.2,64.2,29.70,SSW,204,5.4,5.4,100,0.00,,CLR,0.00,VWS V14.01,2013-06-10 05:21:00,
2013-06-10 00:23:00,64.2,64.2,29.70,SSW,212,4.0,4.0,100,0.00,,CLR,0.00,VWS V14.01,2013-06-10 05:23:00,
2013-06-10 00:24:00,64.2,64.2,29.70,SSW,193,4.5,4.5,100,0.00,,CLR,0.00,VWS V14.01,2013-06-10 05:24:00,
2013-06-10 00:25:00,64.2,64.2,29.70,SSW,192,3.6,4.0,100,0.00,,CLR,0.00,VWS V14.01,2013-06-10 05:25:00,
2013-06-10 00:26:00,64.2,64.2,29.70,SSW,193,3.6,4.0,100,0.00,,CLR,0.00,VWS V14.01,2013-06-10 05:26:00,
2013-06-10 00:28:00,64.2,64.2,29.70,SSW,197,2.7,3.1,100,0.00,,CLR,0.00,VWS V14.01,2013-06-10 05:28:00,
2013-06-10 00:29:00,64.2,64.2,29.70,SSW,197,2.7,3.6,100,0.00,,CLR,0.00,VWS V14.01,2013-06-10 05:29:00,
2013-06-10 00:30:00,64.2,64.2,29.70,SSW,197,3.1,3.1,100,0.00,,CLR,0.00,VWS V14.01,2013-06-10 05:30:00,
2013-06-10 00:32:00,64.4,64.4,29.70,SSW,197,2.7,3.1,100,0.00,,CLR,0.00,VWS V14.01,2013-06-10 05:32:00,
2013-06-10 00:33:00,64.4,64.4,29.70,SSW,197,3.6,3.6,100,0.00,,CLR,0.00,VWS V14.01,2013-06-10 05:33:00,
2013-06-10 00:35:00,64.4,64.4,29.70,SW,232,2.7,2.7,100,0.00,,CLR,0.00,VWS V14.01,2013-06-10 05:35:00,
2013-06-10 00:36:00,64.4,64.4,29.70,SW,232,2.7,2.7,100,0.00,,CLR,0.00,VWS V14.01,2013-06-10 05:36:00,
2013-06-10 00:37:00,64.4,64.4,29.70,SSW,200,3.6,3.6,100,0.00,,CLR,0.00,VWS V14.01,2013-06-10 05:37:00,
2013-06-10 00:40:00,64.4,64.4,29.70,SSW,204,2.2,2.2,100,0.00,,CLR,0.00,VWS V14.01,2013-06-10 05:40:00,
2013-06-10 00:41:00,64.4,64.4,29.70,SSW,204,3.1,3.1,100,0.00,,CLR,0.00,VWS V14.01,2013-06-10 05:41:00,
2013-06-10 00:42:00,64.4,64.4,29.70,SSW,210,4.0,4.9,100,0.00,,CLR,0.00,VWS V14.01,2013-06-10 05:42:00,
2013-06-10 00:46:00,64.4,64.4,29.70,SSW,193,3.1,3.6,100,0.00,,CLR,0.00,VWS V14.01,2013-06-10 05:46:00,
2013-06-10 00:47:00,64.4,64.4,29.70,SSW,194,3.6,4.0,100,0.00,,CLR,0.00,VWS V14.01,2013-06-10 05:47:00,
2013-06-10 00:48:00,64.4,64.4,29.70,SSW,194,3.6,3.6,100,0.00,,CLR,0.00,VWS V14.01,2013-06-10 05:48:00,
2013-06-10 00:51:00,64.4,64.4,29.70,SSW,194,2.2,2.2,100,0.00,,CLR,0.00,VWS V14.01,2013-06-10 05:51:00,
2013-06-10 00:52:00,64.4,64.4,29.70,SSW,194,2.2,2.2,100,0.00,,CLR,0.00,VWS V14.01,2013-06-10 05:52:00,
2013-06-10 00:53:00,64.4,64.4,29.70,SSW,194,2.7,2.7,100,0.00,,CLR,0.00,VWS V14.01,2013-06-10 05:53:00,
2013-06-10 00:57:00,64.4,64.4,29.70,SW,226,3.6,4.0,100,0.00,,CLR,0.00,VWS V14.01,2013-06-10 05:57:00,
2013-06-10 00:58:00,64.4,64.4,29.70,SSW,204,4.9,4.9,100,0.00,,CLR,0.00,VWS V14.01,2013-06-10 05:58:00,
2013-06-10 00:59:00,64.4,64.4,29.70,SSW,204,2.7,3.1,100,0.00,,CLR,0.00,VWS V14.01,2013-06-10 05:59:00,
2013-06-10 01:02:00,64.4,64.4,29.70,SW,222,4.9,4.9,100,0.00,,OVC100,0.00,VWS V14.01,2013-06-10 06:02:00,
2013-06-10 01:03:00,64.4,64.4,29.70,WSW,246,4.0,5.8,100,0.00,,OVC100,0.00,VWS V14.01,2013-06-10 06:03:00,
2013-06-10 01:04:00,64.4,64.4,29.70,WSW,244,3.6,3.6,100,0.00,,OVC100,0.00,VWS V14.01,2013-06-10 06:04:00,
2013-06-10 01:08:00,64.6,64.6,29.70,WSW,243,3.1,4.0,100,0.00,,OVC100,0.00,VWS V14.01,2013-06-10 06:08:00,
2013-06-10 01:09:00,64.6,64.6,29.70,WSW,243,3.1,3.1,100,0.00,,OVC100,0.00,VWS V14.01,2013-06-10 06:09:00,
2013-06-10 01:10:00,64.6,64.6,29.70,WSW,243,2.7,3.1,100,0.00,,OVC100,0.00,VWS V14.01,2013-06-10 06:10:00,
2013-06-10 01:13:00,64.6,64.6,29.70,SW,222,2.7,4.0,100,0.00,,OVC100,0.00,VWS V14.01,2013-06-10 06:13:00,
2013-06-10 01:14:00,64.6,64.6,29.70,SW,227,4.0,4.0,100,0.00,,OVC100,0.00,VWS V14.01,2013-06-10 06:14:00,
2013-06-10 01:15:00,64.6,64.6,29.70,SW,230,4.0,4.0,100,0.00,,OVC100,0.00,VWS V14.01,2013-06-10 06:15:00,
2013-06-10 01:19:00,64.8,64.8,29.70,SW,231,3.1,3.1,100,0.00,,OVC100,0.00,VWS V14.01,2013-06-10 06:19:00,
2013-06-10 01:21:00,64.8,64.8,29.70,SW,231,2.2,3.6,100,0.00,,OVC100,0.00,VWS V14.01,2013-06-10 06:21:00,
2013-06-10 01:22:00,64.8,64.8,29.70,SW,231,2.2,2.7,100,0.00,,OVC100,0.00,VWS V14.01,2013-06-10 06:22:00,
2013-06-10 01:25:00,64.8,64.8,29.70,SW,231,2.7,3.6,100,0.00,,OVC100,0.00,VWS V14.01,2013-06-10 06:25:00,
2013-06-10 01:26:00,64.8,64.8,29.70,SW,236,0.0,2.7,100,0.00,,OVC100,0.00,VWS V14.01,2013-06-10 06:26:00,
2013-06-10 01:27:00,64.8,64.8,29.70,SW,236,2.7,3.1,100,0.00,,OVC100,0.00,VWS V14.01,2013-06-10 06:27:00,
2013-06-10 01:30:00,64.8,64.8,29.70,WSW,250,4.0,4.0,100,0.00,,OVC100,0.00,VWS V14.01,2013-06-10 06:30:00,
2013-06-10 01:31:00,64.6,64.6,29.70,WSW,250,3.6,4.0,100,0.00,,OVC100,0.00,VWS V14.01,2013-06-10 06:31:00,
2013-06-10 01:32:00,64.6,64.6,29.70,WSW,250,2.7,3.1,100,0.00,,BKN100,0.00,VWS V14.01,2013-06-10 06:32:00,
2013-06-10 01:33:00,64.6,64.6,29.70,WSW,246,3.1,3.1,100,0.00,,BKN100,0.00,VWS V14.01,2013-06-10 06:33:00,
2013-06-10 01:36:00,64.6,64.6,29.70,SW,236,3.6,5.8,100,0.00,,BKN100,0.00,VWS V14.01,2013-06-10 06:36:00,
2013-06-10 01:37:00,64.6,64.6,29.70,WSW,253,4.0,4.0,100,0.00,,BKN100,0.00,VWS V14.01,2013-06-10 06:37:00,
2013-06-10 01:38:00,64.6,64.6,29.70,WSW,253,2.7,3.1,100,0.00,,BKN100,0.00,VWS V14.01,2013-06-10 06:38:00,
2013-06-10 01:41:00,64.6,64.6,29.70,WSW,254,4.0,4.0,100,0.00,,BKN100,0.00,VWS V14.01,2013-06-10 06:41:00,
2013-06-10 01:42:00,64.6,64.6,29.70,WSW,256,3.6,4.0,100,0.00,,BKN100,0.00,VWS V14.01,2013-06-10 06:42:00,
2013-06-10 01:43:00,64.6,64.6,29.70,WSW,250,3.6,4.0,100,0.00,,BKN100,0.00,VWS V14.01,2013-06-10 06:43:00,
2013-06-10 01:45:00,64.6,64.6,29.70,WSW,249,3.1,3.1,100,0.00,,BKN100,0.00,VWS V14.01,2013-06-10 06:45:00,
2013-06-10 01:47:00,64.6,64.6,29.70,WSW,241,3.6,4.9,100,0.00,,BKN100,0.00,VWS V14.01,2013-06-10 06:47:00,
2013-06-10 01:48:00,64.6,64.6,29.70,WSW,240,3.6,3.6,100,0.00,,BKN100,0.00,VWS V14.01,2013-06-10 06:48:00,
2013-06-10 01:49:00,64.6,64.6,29.70,WSW,241,2.2,3.1,100,0.00,,BKN100,0.00,VWS V14.01,2013-06-10 06:49:00,
2013-06-10 01:50:00,64.6,64.6,29.70,WSW,240,4.0,4.0,100,0.00,,BKN100,0.00,VWS V14.01,2013-06-10 06:50:00,
2013-06-10 01:53:00,64.6,64.6,29.70,WSW,239,3.6,3.6,100,0.00,,BKN100,0.00,VWS V14.01,2013-06-10 06:53:00,
2013-06-10 01:54:00,64.6,64.6,29.70,WSW,240,2.7,4.0,100,0.00,,BKN100,0.00,VWS V14.01,2013-06-10 06:54:00,
2013-06-10 01:55:00,64.6,64.6,29.70,WSW,243,0.0,0.0,100,0.00,,BKN100,0.00,VWS V14.01,2013-06-10 06:55:00,
2013-06-10 01:59:00,64.6,64.6,29.70,WSW,237,3.1,3.6,100,0.00,,BKN100,0.00,VWS V14.01,2013-06-10 06:59:00,
2013-06-10 02:00:00,64.6,64.6,29.70,SW,229,4.0,4.0,100,0.00,,BKN100,0.00,VWS V14.01,2013-06-10 07:00:00,
2013-06-10 02:01:00,64.6,64.6,29.70,SW,229,4.9,6.3,100,0.00,,BKN100,0.00,VWS V14.01,2013-06-10 07:01:00,
2013-06-10 02:04:00,64.6,64.6,29.70,SW,225,4.9,5.8,100,0.00,,OVC044,0.00,VWS V14.01,2013-06-10 07:04:00,
2013-06-10 02:05:00,64.6,64.6,29.70,WSW,243,3.6,4.5,100,0.00,,OVC044,0.00,VWS V14.01,2013-06-10 07:05:00,
2013-06-10 02:06:00,64.6,64.6,29.70,WSW,240,3.6,4.5,100,0.00,,OVC044,0.00,VWS V14.01,2013-06-10 07:06:00,
2013-06-10 02:07:00,64.6,64.6,29.70,SW,229,3.6,5.4,100,0.00,,OVC044,0.00,VWS V14.01,2013-06-10 07:07:00,
2013-06-10 02:09:00,64.8,64.8,29.70,SW,229,4.9,4.9,100,0.00,,OVC044,0.00,VWS V14.01,2013-06-10 07:09:00,
2013-06-10 02:10:00,64.8,64.8,29.70,SW,229,3.6,4.9,100,0.00,,OVC044,0.00,VWS V14.01,2013-06-10 07:10:00,
2013-06-10 02:11:00,64.8,64.8,29.70,SSW,209,3.6,4.0,100,0.00,,OVC044,0.00,VWS V14.01,2013-06-10 07:11:00,
2013-06-10 02:12:00,64.8,64.8,29.70,SSW,202,4.0,4.0,100,0.00,,OVC044,0.00,VWS V14.01,2013-06-10 07:12:00,
2013-06-10 02:15:00,64.8,64.8,29.70,SSW,201,4.0,4.0,100,0.00,,OVC044,0.00,VWS V14.01,2013-06-10 07:15:00,
2013-06-10 02:16:00,64.8,64.8,29.70,SSW,193,3.6,4.0,100,0.00,,OVC044,0.00,VWS V14.01,2013-06-10 07:16:00,
2013-06-10 02:17:00,64.8,64.8,29.70,SW,227,4.5,5.4,100,0.00,,OVC044,0.00,VWS V14.01,2013-06-10 07:17:00,
2013-06-10 02:21:00,64.8,64.8,29.70,SSW,208,5.4,5.4,100,0.00,,OVC044,0.00,VWS V14.01,2013-06-10 07:21:00,
2013-06-10 02:22:00,64.8,64.8,29.70,SW,232,4.0,7.6,100,0.00,,OVC044,0.00,VWS V14.01,2013-06-10 07:22:00,
2013-06-10 02:23:00,64.8,64.8,29.70,West,259,4.0,4.0,100,0.00,,OVC044,0.00,VWS V14.01,2013-06-10 07:23:00,
2013-06-10 02:27:00,64.8,64.8,29.70,WSW,244,3.6,4.0,100,0.00,,OVC044,0.00,VWS V14.01,2013-06-10 07:27:00,
2013-06-10 02:28:00,64.8,64.8,29.70,SW,236,4.9,5.4,100,0.00,,OVC044,0.00,VWS V14.01,2013-06-10 07:28:00,
2013-06-10 02:29:00,64.8,64.8,29.70,WSW,252,4.0,5.4,100,0.00,,OVC044,0.00,VWS V14.01,2013-06-10 07:29:00,
2013-06-10 02:32:00,64.8,64.8,29.70,SW,230,4.0,5.8,100,0.00,,OVC028,0.00,VWS V14.01,2013-06-10 07:32:00,
2013-06-10 02:33:00,64.8,64.8,29.70,WSW,254,3.6,4.0,100,0.00,,OVC028,0.00,VWS V14.01,2013-06-10 07:33:00,
2013-06-10 02:34:00,64.8,64.8,29.70,WSW,248,4.0,5.8,100,0.00,,OVC028,0.00,VWS V14.01,2013-06-10 07:34:00,
2013-06-10 02:37:00,64.8,64.8,29.70,WSW,247,4.0,4.0,100,0.00,,OVC028,0.00,VWS V14.01,2013-06-10 07:37:00,
2013-06-10 02:39:00,64.8,64.8,29.70,WSW,253,3.6,3.6,100,0.00,,OVC028,0.00,VWS V14.01,2013-06-10 07:39:00,
2013-06-10 02:41:00,64.8,64.8,29.70,WSW,238,2.2,5.4,100,0.00,,OVC028,0.00,VWS V14.01,2013-06-10 07:41:00,
2013-06-10 02:42:00,64.8,64.8,29.70,SW,233,3.1,4.0,100,0.00,,OVC028,0.00,VWS V14.01,2013-06-10 07:42:00,
2013-06-10 02:43:00,64.8,64.8,29.70,West,266,3.6,3.6,100,0.00,,OVC028,0.00,VWS V14.01,2013-06-10 07:43:00,
2013-06-10 02:44:00,64.8,64.8,29.70,WSW,258,3.1,4.0,100,0.00,,OVC028,0.00,VWS V14.01,2013-06-10 07:44:00,
2013-06-10 02:46:00,64.8,64.8,29.70,WSW,245,4.0,4.0,100,0.00,,OVC028,0.00,VWS V14.01,2013-06-10 07:46:00,
2013-06-10 02:47:00,64.8,64.8,29.70,WSW,245,3.1,4.0,100,0.00,,OVC028,0.00,VWS V14.01,2013-06-10 07:47:00,
2013-06-10 02:48:00,64.8,64.8,29.70,West,259,3.1,5.8,100,0.00,,OVC028,0.00,VWS V14.01,2013-06-10 07:48:00,
2013-06-10 02:49:00,64.8,64.8,29.70,West,259,2.7,3.1,100,0.00,,OVC028,0.00,VWS V14.01,2013-06-10 07:49:00,
2013-06-10 02:51:00,64.8,64.8,29.70,WSW,258,2.2,4.0,100,0.00,,OVC028,0.00,VWS V14.01,2013-06-10 07:51:00,
2013-06-10 02:53:00,64.8,64.8,29.70,WSW,257,2.7,3.1,100,0.00,,OVC028,0.00,VWS V14.01,2013-06-10 07:53:00,
2013-06-10 02:54:00,64.8,64.8,29.70,West,260,3.6,3.6,100,0.00,,OVC028,0.00,VWS V14.01,2013-06-10 07:54:00,
2013-06-10 02:55:00,64.8,64.8,29.70,WSW,249,3.1,3.6,100,0.00,,OVC028,0.00,VWS V14.01,2013-06-10 07:55:00,
2013-06-10 02:56:00,64.8,64.8,29.70,WSW,249,4.0,4.0,100,0.00,,OVC028,0.00,VWS V14.01,2013-06-10 07:56:00,
2013-06-10 02:58:00,64.8,64.8,29.70,WSW,254,2.7,4.0,100,0.00,,OVC028,0.00,VWS V14.01,2013-06-10 07:58:00,
2013-06-10 02:59:00,64.8,64.8,29.70,West,260,3.1,3.6,100,0.00,,OVC028,0.00,VWS V14.01,2013-06-10 07:59:00,
2013-06-10 03:00:00,64.8,64.8,29.70,WSW,243,4.9,4.9,100,0.00,,OVC028,0.00,VWS V14.01,2013-06-10 08:00:00,
2013-06-10 03:01:00,64.8,64.8,29.70,WSW,244,3.6,4.9,100,0.00,,OVC028,0.00,VWS V14.01,2013-06-10 08:01:00,
2013-06-10 03:02:00,64.8,64.8,29.70,WSW,247,3.6,3.6,100,0.00,,OVC045,0.00,VWS V14.01,2013-06-10 08:02:00,
2013-06-10 03:04:00,64.8,64.8,29.70,WSW,244,3.1,4.0,100,0.00,,OVC045,0.00,VWS V14.01,2013-06-10 08:04:00,
2013-06-10 03:05:00,64.8,64.8,29.70,WSW,246,3.1,3.6,100,0.00,,OVC045,0.00,VWS V14.01,2013-06-10 08:05:00,
2013-06-10 03:06:00,64.8,64.8,29.70,WSW,243,5.4,5.4,100,0.00,,OVC045,0.00,VWS V14.01,2013-06-10 08:06:00,
2013-06-10 03:07:00,64.8,64.8,29.70,WSW,243,2.7,3.6,100,0.00,,OVC045,0.00,VWS V14.01,2013-06-10 08:07:00,
2013-06-10 03:08:00,64.8,64.8,29.70,WSW,243,3.1,3.1,100,0.00,,OVC045,0.00,VWS V14.01,2013-06-10 08:08:00,
2013-06-10 03:09:00,64.8,64.8,29.70,WSW,240,3.1,4.0,100,0.00,,OVC045,0.00,VWS V14.01,2013-06-10 08:09:00,
2013-06-10 03:11:00,64.8,64.8,29.70,WSW,237,4.0,4.0,100,0.00,,OVC045,0.00,VWS V14.01,2013-06-10 08:11:00,
2013-06-10 03:13:00,64.8,64.8,29.70,WSW,238,5.4,5.8,100,0.00,,OVC045,0.00,VWS V14.01,2013-06-10 08:13:00,
2013-06-10 03:15:00,64.8,64.8,29.70,WSW,250,4.9,4.9,100,0.00,,OVC045,0.00,VWS V14.01,2013-06-10 08:15:00,
2013-06-10 03:16:00,64.8,64.8,29.70,WSW,252,5.4,5.4,100,0.00,,OVC045,0.00,VWS V14.01,2013-06-10 08:16:00,
2013-06-10 03:18:00,64.8,64.8,29.70,West,260,3.1,3.6,100,0.00,,OVC045,0.00,VWS V14.01,2013-06-10 08:18:00,
2013-06-10 03:20:00,64.8,64.8,29.70,West,280,3.6,3.6,100,0.00,,OVC045,0.00,VWS V14.01,2013-06-10 08:20:00,
2013-06-10 03:21:00,64.8,64.8,29.70,West,280,2.7,2.7,100,0.00,,OVC045,0.00,VWS V14.01,2013-06-10 08:21:00,
2013-06-10 03:24:00,64.8,64.8,29.70,West,267,2.7,3.1,100,0.00,,OVC045,0.00,VWS V14.01,2013-06-10 08:24:00,
2013-06-10 03:25:00,64.8,64.8,29.70,West,267,2.7,4.0,100,0.00,,OVC045,0.00,VWS V14.01,2013-06-10 08:25:00,
2013-06-10 03:26:00,64.8,64.8,29.70,West,267,0.0,2.7,100,0.00,,OVC045,0.00,VWS V14.01,2013-06-10 08:26:00,
2013-06-10 03:27:00,64.8,64.8,29.70,WSW,250,3.1,3.1,100,0.00,,OVC045,0.00,VWS V14.01,2013-06-10 08:27:00,
2013-06-10 03:30:00,64.8,64.8,29.70,WSW,251,2.7,2.7,100,0.00,,OVC045,0.00,VWS V14.01,2013-06-10 08:30:00,
2013-06-10 03:31:00,64.8,64.8,29.70,WSW,251,0.0,2.7,100,0.00,,OVC045,0.00,VWS V14.01,2013-06-10 08:31:00,
2013-06-10 03:32:00,64.8,64.8,29.70,WSW,251,0.0,0.0,100,0.00,,OVC045,0.00,VWS V14.01,2013-06-10 08:32:00,
2013-06-10 03:35:00,64.8,64.8,29.70,West,277,0.0,0.0,100,0.00,,OVC039,0.00,VWS V14.01,2013-06-10 08:35:00,
2013-06-10 03:37:00,64.8,64.8,29.70,West,271,2.2,3.6,100,0.00,,OVC039,0.00,VWS V14.01,2013-06-10 08:37:00,
2013-06-10 03:38:00,64.8,64.8,29.70,West,271,2.7,2.7,100,0.00,,OVC039,0.00,VWS V14.01,2013-06-10 08:38:00,
2013-06-10 03:39:00,64.8,64.8,29.70,West,271,0.0,2.7,100,0.00,,OVC039,0.00,VWS V14.01,2013-06-10 08:39:00,
2013-06-10 03:40:00,64.8,64.8,29.70,West,280,2.2,3.1,100,0.00,,OVC039,0.00,VWS V14.01,2013-06-10 08:40:00,
2013-06-10 03:41:00,64.8,64.8,29.70,West,280,0.0,3.1,100,0.00,,OVC039,0.00,VWS V14.01,2013-06-10 08:41:00,
2013-06-10 03:42:00,64.8,64.8,29.70,WSW,256,3.1,4.0,100,0.00,,OVC039,0.00,VWS V14.01,2013-06-10 08:42:00,
2013-06-10 03:44:00,64.8,64.8,29.70,WSW,256,3.6,3.6,100,0.00,,OVC039,0.00,VWS V14.01,2013-06-10 08:44:00,
2013-06-10 03:45:00,64.8,64.8,29.70,WSW,254,2.7,3.6,100,0.00,,OVC039,0.00,VWS V14.01,2013-06-10 08:45:00,
2013-06-10 03:46:00,64.8,64.8,29.70,WSW,254,0.0,2.7,100,0.00,,OVC039,0.00,VWS V14.01,2013-06-10 08:46:00,
2013-06-10 03:48:00,64.8,64.8,29.70,WSW,254,2.7,2.7,100,0.00,,OVC039,0.00,VWS V14.01,2013-06-10 08:48:00,
2013-06-10 03:49:00,64.8,64.8,29.70,SW,232,3.6,3.6,100,0.00,,OVC039,0.00,VWS V14.01,2013-06-10 08:49:00,
2013-06-10 03:51:00,64.8,64.8,29.70,WSW,255,2.7,3.6,100,0.00,,OVC039,0.00,VWS V14.01,2013-06-10 08:51:00,
2013-06-10 03:52:00,64.8,64.8,29.70,WSW,255,2.2,2.7,100,0.00,,OVC039,0.00,VWS V14.01,2013-06-10 08:52:00,
2013-06-10 03:54:00,64.8,64.8,29.70,WSW,255,2.7,2.7,100,0.00,,OVC039,0.00,VWS V14.01,2013-06-10 08:54:00,
2013-06-10 03:57:00,64.8,64.8,29.70,WSW,256,0.0,0.0,100,0.00,,OVC039,0.00,VWS V14.01,2013-06-10 08:57:00,
2013-06-10 03:58:00,64.8,64.8,29.70,WSW,256,0.0,0.0,100,0.00,,OVC039,0.00,VWS V14.01,2013-06-10 08:58:00,
2013-06-10 03:59:00,64.8,64.8,29.70,WSW,256,0.0,0.0,100,0.00,,OVC039,0.00,VWS V14.01,2013-06-10 08:59:00,
2013-06-10 04:00:00,64.8,64.8,29.70,WSW,256,0.0,0.0,100,0.00,,OVC039,0.00,VWS V14.01,2013-06-10 09:00:00,
2013-06-10 04:02:00,64.8,64.8,29.70,WSW,256,0.0,0.0,100,0.00,,-RA,0.00,VWS V14.01,2013-06-10 09:02:00,
2013-06-10 04:03:00,64.8,64.8,29.70,WSW,256,0.0,0.0,100,0.00,,-RA,0.00,VWS V14.01,2013-06-10 09:03:00,
2013-06-10 04:05:00,64.8,64.8,29.70,WSW,256,0.0,0.0,100,0.00,,-RA,0.00,VWS V14.01,2013-06-10 09:05:00,
2013-06-10 04:06:00,64.8,64.8,29.70,WSW,256,0.0,0.0,100,0.00,,-RA,0.00,VWS V14.01,2013-06-10 09:06:00,
2013-06-10 04:07:00,64.8,64.8,29.70,WSW,256,2.7,2.7,100,0.00,,-RA,0.00,VWS V14.01,2013-06-10 09:07:00,
2013-06-10 04:08:00,64.8,64.8,29.70,WSW,256,0.0,0.0,100,0.00,,-RA,0.00,VWS V14.01,2013-06-10 09:08:00,
2013-06-10 04:10:00,64.8,64.8,29.70,WSW,256,0.0,0.0,100,0.00,,-RA,0.00,VWS V14.01,2013-06-10 09:10:00,
2013-06-10 04:12:00,64.8,64.8,29.70,WSW,256,0.0,0.0,100,0.00,,-RA,0.00,VWS V14.01,2013-06-10 09:12:00,
2013-06-10 04:13:00,64.8,64.8,29.70,WSW,256,2.7,2.7,100,0.00,,-RA,0.00,VWS V14.01,2013-06-10 09:13:00,
2013-06-10 04:14:00,64.8,64.8,29.70,WSW,256,2.2,2.7,100,0.00,,-RA,0.00,VWS V14.01,2013-06-10 09:14:00,
2013-06-10 04:15:00,64.8,64.8,29.70,WSW,256,0.0,0.0,100,0.00,,-RA,0.00,VWS V14.01,2013-06-10 09:15:00,
2013-06-10 04:16:00,64.8,64.8,29.70,WSW,256,0.0,0.0,100,0.00,,-RA,0.00,VWS V14.01,2013-06-10 09:16:00,
2013-06-10 04:18:00,64.9,64.9,29.70,WSW,256,0.0,0.0,100,0.00,,-RA,0.00,VWS V14.01,2013-06-10 09:18:00,
2013-06-10 04:19:00,64.9,64.9,29.70,WSW,256,0.0,0.0,100,0.00,,-RA,0.00,VWS V14.01,2013-06-10 09:19:00,
2013-06-10 04:21:00,64.9,64.9,29.70,WSW,256,0.0,0.0,100,0.00,,-RA,0.00,VWS V14.01,2013-06-10 09:21:00,
2013-06-10 04:24:00,64.9,64.9,29.70,West,275,0.0,0.0,100,0.00,,-RA,0.00,VWS V14.01,2013-06-10 09:24:00,
2013-06-10 04:26:00,64.9,64.9,29.70,West,264,2.7,3.1,100,0.00,,-RA,0.00,VWS V14.01,2013-06-10 09:26:00,
2013-06-10 04:29:00,64.9,64.9,29.70,WNW,285,0.0,2.7,100,0.00,,-RA,0.00,VWS V14.01,2013-06-10 09:29:00,
2013-06-10 04:30:00,64.9,64.9,29.70,West,259,4.0,4.0,100,0.00,,-RA,0.00,VWS V14.01,2013-06-10 09:30:00,
2013-06-10 04:31:00,64.9,64.9,29.70,West,267,3.6,3.6,100,0.00,,-RA,0.00,VWS V14.01,2013-06-10 09:31:00,
2013-06-10 04:32:00,64.9,64.9,29.70,West,267,0.0,2.2,100,0.00,,-RA,0.00,VWS V14.01,2013-06-10 09:32:00,
2013-06-10 04:34:00,64.9,64.9,29.70,WNW,285,3.6,3.6,100,0.00,,-RA,0.00,VWS V14.01,2013-06-10 09:34:00,
2013-06-10 04:35:00,64.9,64.9,29.70,WNW,285,0.0,3.6,100,0.00,,-RA,0.00,VWS V14.01,2013-06-10 09:35:00,
2013-06-10 04:36:00,64.9,64.9,29.70,WNW,285,0.0,2.7,100,0.00,,-RA,0.00,VWS V14.01,2013-06-10 09:36:00,
2013-06-10 04:38:00,64.9,64.9,29.70,WNW,285,0.0,0.0,100,0.00,,-RA,0.00,VWS V14.01,2013-06-10 09:38:00,
2013-06-10 04:40:00,64.9,64.9,29.70,WNW,285,0.0,0.0,100,0.00,,-RA,0.00,VWS V14.01,2013-06-10 09:40:00,
2013-06-10 04:43:00,64.9,64.9,29.70,WNW,285,2.7,3.1,100,0.00,,-RA,0.00,VWS V14.01,2013-06-10 09:43:00,
2013-06-10 04:44:00,64.9,64.9,29.70,WNW,285,2.7,2.7,100,0.00,,-RA,0.00,VWS V14.01,2013-06-10 09:44:00,
2013-06-10 04:46:00,64.9,64.9,29.70,WNW,285,3.1,3.1,100,0.00,,-RA,0.00,VWS V14.01,2013-06-10 09:46:00,
2013-06-10 04:47:00,64.9,64.9,29.70,WNW,285,0.0,0.0,100,0.00,,-RA,0.00,VWS V14.01,2013-06-10 09:47:00,
2013-06-10 04:48:00,64.9,64.9,29.70,WNW,285,0.0,0.0,100,0.00,,-RA,0.00,VWS V14.01,2013-06-10 09:48:00,
2013-06-10 04:49:00,64.9,64.9,29.70,WNW,285,0.0,0.0,100,0.00,,-RA,0.00,VWS V14.01,2013-06-10 09:49:00,
2013-06-10 04:51:00,64.9,64.9,29.70,WNW,285,2.2,2.7,100,0.00,,-RA,0.00,VWS V14.01,2013-06-10 09:51:00,
2013-06-10 04:52:00,64.9,64.9,29.70,WNW,286,0.0,0.0,100,0.00,,-RA,0.00,VWS V14.01,2013-06-10 09:52:00,
2013-06-10 04:53:00,64.9,64.9,29.70,WNW,286,2.7,2.7,100,0.00,,-RA,0.00,VWS V14.01,2013-06-10 09:53:00,
2013-06-10 04:54:00,64.9,64.9,29.70,WNW,293,2.7,3.1,100,0.00,,-RA,0.00,VWS V14.01,2013-06-10 09:54:00,
2013-06-10 04:55:00,64.9,64.9,29.70,WNW,293,0.0,3.1,100,0.00,,-RA,0.00,VWS V14.01,2013-06-10 09:55:00,
2013-06-10 04:56:00,64.9,64.9,29.70,WNW,293,0.0,0.0,100,0.00,,-RA,0.00,VWS V14.01,2013-06-10 09:56:00,
2013-06-10 04:57:00,64.9,64.9,29.70,WNW,293,0.0,0.0,100,0.00,,-RA,0.00,VWS V14.01,2013-06-10 09:57:00,
2013-06-10 04:59:00,64.9,64.9,29.70,WNW,293,0.0,0.0,100,0.00,,-RA,0.00,VWS V14.01,2013-06-10 09:59:00,
2013-06-10 05:00:00,64.9,64.9,29.70,WNW,293,0.0,0.0,100,0.00,,-RA,0.00,VWS V14.01,2013-06-10 10:00:00,
2013-06-10 05:01:00,64.9,64.9,29.70,WNW,293,0.0,0.0,100,0.00,,-RA,0.00,VWS V14.01,2013-06-10 10:01:00,
2013-06-10 05:02:00,64.9,64.9,29.70,WNW,293,0.0,0.0,100,0.00,,-RA,0.00,VWS V14.01,2013-06-10 10:02:00,
2013-06-10 05:04:00,64.9,64.9,29.70,WNW,293,0.0,0.0,100,0.00,,OVC017,0.00,VWS V14.01,2013-06-10 10:04:00,
2013-06-10 05:05:00,64.9,64.9,29.70,WNW,293,0.0,0.0,100,0.00,,OVC017,0.00,VWS V14.01,2013-06-10 10:05:00,
2013-06-10 05:07:00,64.9,64.9,29.70,WNW,293,0.0,0.0,100,0.00,,OVC017,0.00,VWS V14.01,2013-06-10 10:07:00,
2013-06-10 05:10:00,64.9,64.9,29.70,WNW,293,0.0,0.0,100,0.00,,OVC017,0.00,VWS V14.01,2013-06-10 10:10:00,
2013-06-10 05:12:00,64.9,64.9,29.70,WNW,293,0.0,0.0,100,0.00,,OVC017,0.00,VWS V14.01,2013-06-10 10:12:00,
2013-06-10 05:13:00,64.9,64.9,29.70,WNW,293,0.0,0.0,100,0.00,,OVC017,0.00,VWS V14.01,2013-06-10 10:13:00,
2013-06-10 05:14:00,64.9,64.9,29.70,WNW,293,0.0,0.0,100,0.00,,OVC017,0.00,VWS V14.01,2013-06-10 10:14:00,
2013-06-10 05:15:00,64.9,64.9,29.70,WNW,293,3.1,3.1,100,0.00,,OVC017,0.00,VWS V14.01,2013-06-10 10:15:00,
2013-06-10 05:16:00,64.9,64.9,29.70,WNW,293,0.0,0.0,100,0.00,,OVC017,0.00,VWS V14.01,2013-06-10 10:16:00,
2013-06-10 05:18:00,64.9,64.9,29.70,WNW,293,0.0,2.2,100,0.00,,OVC017,0.00,VWS V14.01,2013-06-10 10:18:00,
2013-06-10 05:19:00,64.9,64.9,29.70,WNW,293,0.0,0.0,100,0.00,,OVC017,0.00,VWS V14.01,2013-06-10 10:19:00,
2013-06-10 05:20:00,64.9,64.9,29.70,WNW,293,0.0,0.0,100,0.00,,OVC017,0.00,VWS V14.01,2013-06-10 10:20:00,
2013-06-10 05:22:00,64.9,64.9,29.70,WNW,293,0.0,0.0,100,0.00,,OVC017,0.00,VWS V14.01,2013-06-10 10:22:00,
2013-06-10 05:23:00,64.9,64.9,29.70,WNW,293,0.0,0.0,100,0.00,,OVC017,0.00,VWS V14.01,2013-06-10 10:23:00,
2013-06-10 05:25:00,64.9,64.9,29.70,WNW,293,0.0,0.0,100,0.00,,OVC017,0.00,VWS V14.01,2013-06-10 10:25:00,
2013-06-10 05:26:00,64.9,64.9,29.72,WNW,293,0.0,0.0,100,0.00,,OVC017,0.00,VWS V14.01,2013-06-10 10:26:00,
2013-06-10 05:27:00,64.9,64.9,29.72,WNW,293,0.0,0.0,100,0.00,,OVC017,0.00,VWS V14.01,2013-06-10 10:27:00,
2013-06-10 05:31:00,65.1,65.1,29.72,WNW,293,0.0,0.0,100,0.00,,OVC017,0.00,VWS V14.01,2013-06-10 10:31:00,
2013-06-10 05:32:00,64.9,64.9,29.72,WNW,293,2.2,2.2,100,0.00,,OVC017,0.00,VWS V14.01,2013-06-10 10:32:00,
2013-06-10 05:37:00,64.9,64.9,29.72,WNW,293,0.0,0.0,100,0.00,,OVC017,0.00,VWS V14.01,2013-06-10 10:37:00,
2013-06-10 05:38:00,64.9,64.9,29.72,WNW,293,2.2,3.6,100,0.00,,OVC017,0.00,VWS V14.01,2013-06-10 10:38:00,
2013-06-10 05:40:00,64.9,64.9,29.72,WNW,293,0.0,0.0,100,0.00,,OVC017,0.00,VWS V14.01,2013-06-10 10:40:00,
2013-06-10 05:42:00,64.9,64.9,29.72,WNW,293,0.0,0.0,100,0.00,,OVC017,0.00,VWS V14.01,2013-06-10 10:42:00,
2013-06-10 05:43:00,64.9,64.9,29.72,WNW,293,0.0,0.0,100,0.00,,OVC017,0.00,VWS V14.01,2013-06-10 10:43:00,
2013-06-10 05:44:00,64.9,64.9,29.72,WNW,293,0.0,0.0,100,0.00,,OVC017,0.00,VWS V14.01,2013-06-10 10:44:00,
2013-06-10 05:45:00,64.9,64.9,29.72,WNW,293,0.0,0.0,100,0.00,,OVC017,0.00,VWS V14.01,2013-06-10 10:45:00,
2013-06-10 05:47:00,64.9,64.9,29.72,WNW,293,0.0,0.0,100,0.00,,OVC017,0.00,VWS V14.01,2013-06-10 10:47:00,
2013-06-10 05:48:00,64.9,64.9,29.72,WNW,293,0.0,0.0,100,0.00,,OVC017,0.00,VWS V14.01,2013-06-10 10:48:00,
2013-06-10 05:50:00,64.9,64.9,29.72,WNW,293,0.0,0.0,100,0.00,,OVC017,0.00,VWS V14.01,2013-06-10 10:50:00,
2013-06-10 05:51:00,64.9,64.9,29.72,WNW,293,0.0,0.0,100,0.00,,OVC017,0.00,VWS V14.01,2013-06-10 10:51:00,
2013-06-10 05:54:00,65.1,65.1,29.72,WNW,293,0.0,0.0,100,0.00,,OVC017,0.00,VWS V14.01,2013-06-10 10:54:00,
2013-06-10 05:55:00,65.1,65.1,29.72,WNW,294,0.0,0.0,100,0.00,,OVC017,0.00,VWS V14.01,2013-06-10 10:55:00,
2013-06-10 05:57:00,65.1,65.1,29.72,WNW,293,0.0,0.0,100,0.00,,OVC017,0.00,VWS V14.01,2013-06-10 10:57:00,
2013-06-10 05:58:00,65.1,65.1,29.72,WNW,293,0.0,0.0,100,0.00,,OVC017,0.00,VWS V14.01,2013-06-10 10:58:00,
2013-06-10 05:59:00,65.1,65.1,29.72,WNW,293,0.0,0.0,100,0.00,,OVC017,0.00,VWS V14.01,2013-06-10 10:59:00,
2013-06-10 06:02:00,65.1,65.1,29.72,WNW,293,0.0,0.0,100,0.00,,OVC017,0.00,VWS V14.01,2013-06-10 11:02:00,
2013-06-10 06:03:00,65.1,65.1,29.72,WNW,294,0.0,0.0,100,0.00,,,0.00,VWS V14.01,2013-06-10 11:03:00,
2013-06-10 06:04:00,65.1,65.1,29.72,WNW,294,0.0,0.0,100,0.00,,,0.00,VWS V14.01,2013-06-10 11:04:00,
2013-06-10 06:07:00,65.3,65.3,29.72,NNW,330,5.8,5.8,100,0.00,,,0.00,VWS V14.01,2013-06-10 11:07:00,
2013-06-10 06:08:00,65.3,65.3,29.72,NW,324,3.6,3.6,100,0.00,,,0.00,VWS V14.01,2013-06-10 11:08:00,
2013-06-10 06:10:00,65.3,65.3,29.72,WSW,254,3.1,3.1,100,0.00,,,0.00,VWS V14.01,2013-06-10 11:10:00,
2013-06-10 06:12:00,65.3,65.3,29.72,West,276,4.9,4.9,100,0.00,,,0.00,VWS V14.01,2013-06-10 11:12:00,
2013-06-10 06:13:00,65.3,65.3,29.72,WNW,284,2.7,2.7,100,0.00,,,0.00,VWS V14.01,2013-06-10 11:13:00,
2013-06-10 06:15:00,65.3,65.3,29.72,WNW,285,2.7,2.7,100,0.00,,,0.00,VWS V14.01,2013-06-10 11:15:00,
2013-06-10 06:16:00,65.3,65.3,29.72,WNW,284,0.0,0.0,100,0.00,,,0.00,VWS V14.01,2013-06-10 11:16:00,
2013-06-10 06:19:00,65.3,65.3,29.72,West,273,0.0,2.7,100,0.00,,,0.00,VWS V14.01,2013-06-10 11:19:00,
2013-06-10 06:20:00,65.3,65.3,29.72,West,273,0.0,0.0,100,0.00,,,0.00,VWS V14.01,2013-06-10 11:20:00,
2013-06-10 06:21:00,65.3,65.3,29.72,West,273,0.0,0.0,100,0.00,,,0.00,VWS V14.01,2013-06-10 11:21:00,
2013-06-10 06:22:00,65.3,65.3,29.72,West,273,0.0,0.0,100,0.00,,,0.00,VWS V14.01,2013-06-10 11:22:00,
2013-06-10 06:24:00,65.5,65.5,29.72,West,273,0.0,0.0,100,0.00,,,0.00,VWS V14.01,2013-06-10 11:24:00,
2013-06-10 06:26:00,65.5,65.5,29.72,West,265,3.6,3.6,100,0.00,,,0.00,VWS V14.01,2013-06-10 11:26:00,
2013-06-10 06:27:00,65.5,65.5,29.72,West,265,3.1,3.6,100,0.00,,,0.00,VWS V14.01,2013-06-10 11:27:00,
2013-06-10 06:29:00,65.5,65.5,29.72,West,265,2.7,2.7,100,0.00,,,0.00,VWS V14.01,2013-06-10 11:29:00,
2013-06-10 06:31:00,65.7,65.7,29.72,WNW,285,3.1,3.1,100,0.00,,,0.00,VWS V14.01,2013-06-10 11:31:00,
2013-06-10 06:32:00,65.7,65.7,29.72,WNW,282,2.7,3.1,100,0.00,,,0.00,VWS V14.01,2013-06-10 11:32:00,
2013-06-10 06:33:00,65.7,65.7,29.72,West,281,2.2,2.7,100,0.00,,,0.00,VWS V14.01,2013-06-10 11:33:00,
2013-06-10 06:34:00,65.7,65.7,29.72,West,281,0.0,0.0,100,0.00,,,0.00,VWS V14.01,2013-06-10 11:34:00,
2013-06-10 06:37:00,65.7,65.7,29.72,WNW,291,0.0,2.2,100,0.00,,,0.00,VWS V14.01,2013-06-10 11:37:00,
2013-06-10 06:38:00,65.7,65.7,29.72,WNW,291,0.0,0.0,100,0.00,,,0.00,VWS V14.01,2013-06-10 11:38:00,
2013-06-10 06:40:00,65.8,65.8,29.72,WNW,291,0.0,0.0,100,0.00,,,0.00,VWS V14.01,2013-06-10 11:40:00,
2013-06-10 06:43:00,65.8,65.8,29.72,WNW,291,0.0,0.0,100,0.00,,,0.00,VWS V14.01,2013-06-10 11:43:00,
2013-06-10 06:45:00,65.8,65.8,29.72,WNW,291,0.0,0.0,100,0.00,,,0.00,VWS V14.01,2013-06-10 11:45:00,
2013-06-10 06:48:00,66.0,66.0,29.72,WNW,291,2.7,2.7,100,0.00,,,0.00,VWS V14.01,2013-06-10 11:48:00,
2013-06-10 06:49:00,66.0,66.0,29.72,WNW,291,2.2,2.7,100,0.00,,,0.00,VWS V14.01,2013-06-10 11:49:00,
2013-06-10 06:50:00,66.2,66.2,29.72,West,277,0.0,0.0,100,0.00,,,0.00,VWS V14.01,2013-06-10 11:50:00,
2013-06-10 06:51:00,66.2,66.2,29.72,West,277,2.2,2.2,100,0.00,,,0.00,VWS V14.01,2013-06-10 11:51:00,
2013-06-10 06:53:00,66.4,66.4,29.72,West,277,0.0,2.7,100,0.00,,,0.00,VWS V14.01,2013-06-10 11:53:00,
2013-06-10 06:54:00,66.4,66.4,29.72,West,270,2.7,3.1,100,0.00,,,0.00,VWS V14.01,2013-06-10 11:54:00,
2013-06-10 06:55:00,66.6,66.6,29.72,West,270,2.2,2.2,100,0.00,,,0.00,VWS V14.01,2013-06-10 11:55:00,
2013-06-10 06:56:00,66.6,66.6,29.72,West,271,3.1,3.1,100,0.00,,,0.00,VWS V14.01,2013-06-10 11:56:00,
2013-06-10 06:58:00,66.6,66.6,29.72,NW,304,0.0,0.0,100,0.00,,,0.00,VWS V14.01,2013-06-10 11:58:00,
2013-06-10 07:00:00,66.7,66.7,29.72,NW,304,0.0,0.0,100,0.00,,,0.00,VWS V14.01,2013-06-10 12:00:00,
2013-06-10 07:02:00,66.7,66.7,29.72,NW,304,0.0,2.7,100,0.00,,,0.00,VWS V14.01,2013-06-10 12:02:00,
2013-06-10 07:03:00,66.7,66.7,29.72,West,264,0.0,0.0,100,0.00,,OVC017,0.00,VWS V14.01,2013-06-10 12:03:00,
2013-06-10 07:04:00,66.9,66.9,29.72,WNW,286,4.0,4.0,100,0.00,,OVC017,0.00,VWS V14.01,2013-06-10 12:04:00,
2013-06-10 07:05:00,66.9,66.9,29.72,WNW,286,2.2,4.0,100,0.00,,OVC017,0.00,VWS V14.01,2013-06-10 12:05:00,
2013-06-10 07:08:00,66.9,66.9,29.72,WNW,286,0.0,0.0,100,0.00,,OVC017,0.00,VWS V14.01,2013-06-10 12:08:00,
2013-06-10 07:09:00,66.9,66.9,29.72,NW,305,3.1,3.1,100,0.00,,OVC017,0.00,VWS V14.01,2013-06-10 12:09:00,
2013-06-10 07:10:00,66.9,66.9,29.72,NW,305,2.7,3.1,100,0.00,,OVC017,0.00,VWS V14.01,2013-06-10 12:10:00,
2013-06-10 07:11:00,66.9,66.9,29.72,NW,305,3.1,3.1,100,0.00,,OVC017,0.00,VWS V14.01,2013-06-10 12:11:00,
2013-06-10 07:13:00,66.7,66.7,29.72,NW,321,3.6,3.6,100,0.00,,OVC017,0.00,VWS V14.01,2013-06-10 12:13:00,
2013-06-10 07:14:00,66.6,66.6,29.72,NW,319,4.0,4.9,100,0.00,,OVC017,0.00,VWS V14.01,2013-06-10 12:14:00,
2013-06-10 07:16:00,66.6,66.6,29.72,WNW,301,3.6,4.0,100,0.00,,OVC017,0.00,VWS V14.01,2013-06-10 12:16:00,
2013-06-10 07:17:00,66.6,66.6,29.72,WNW,301,2.7,4.0,100,0.00,,OVC017,0.00,VWS V14.01,2013-06-10 12:17:00,
2013-06-10 07:19:00,66.6,66.6,29.72,WNW,301,0.0,2.2,100,0.00,,OVC017,0.00,VWS V14.01,2013-06-10 12:19:00,
2013-06-10 07:20:00,66.7,66.7,29.72,WNW,301,2.7,2.7,100,0.00,,OVC017,0.00,VWS V14.01,2013-06-10 12:20:00,
2013-06-10 07:21:00,66.7,66.7,29.72,WNW,301,3.1,3.1,100,0.00,,OVC017,0.00,VWS V14.01,2013-06-10 12:21:00,
2013-06-10 07:22:00,66.9,66.9,29.72,WNW,300,4.0,4.0,100,0.00,,OVC017,0.00,VWS V14.01,2013-06-10 12:22:00,
2013-06-10 07:24:00,67.5,66.9,29.72,WNW,301,3.1,3.6,98,0.00,,OVC017,0.00,VWS V14.01,2013-06-10 12:24:00,
2013-06-10 07:25:00,67.5,66.3,29.70,NW,310,3.6,4.0,96,0.00,,OVC017,0.00,VWS V14.01,2013-06-10 12:25:00,
2013-06-10 07:26:00,67.6,66.5,29.70,NW,310,3.6,3.6,96,0.00,,OVC017,0.00,VWS V14.01,2013-06-10 12:26:00,
2013-06-10 07:27:00,67.6,64.6,29.70,NNW,342,4.0,4.9,90,0.00,,OVC017,0.00,VWS V14.01,2013-06-10 12:27:00,
2013-06-10 07:29:00,67.6,62.6,29.70,North,6,3.6,3.6,84,0.00,,OVC017,0.00,VWS V14.01,2013-06-10 12:29:00,
2013-06-10 07:30:00,67.6,63.3,29.70,North,0,3.1,3.6,86,0.00,,OVC017,0.00,VWS V14.01,2013-06-10 12:30:00,
2013-06-10 07:32:00,67.8,62.1,29.70,NW,316,4.0,5.8,82,0.00,,OVC017,0.00,VWS V14.01,2013-06-10 12:32:00,
2013-06-10 07:33:00,67.8,60.7,29.70,NNW,330,5.4,5.4,78,0.00,,OVC017,0.00,VWS V14.01,2013-06-10 12:33:00,
2013-06-10 07:35:00,68.0,60.2,29.70,NNW,329,4.9,4.9,76,0.00,,OVC017,0.00,VWS V14.01,2013-06-10 12:35:00,
2013-06-10 07:36:00,68.2,58.8,29.70,NW,313,3.6,4.0,72,0.00,,OVC017,0.00,VWS V14.01,2013-06-10 12:36:00,
2013-06-10 07:37:00,68.4,59.0,29.70,NW,323,6.3,6.3,72,0.00,,OVC017,0.00,VWS V14.01,2013-06-10 12:37:00,
2013-06-10 07:38:00,68.4,58.2,29.70,NW,323,5.4,6.3,70,0.00,,OVC017,0.00,VWS V14.01,2013-06-10 12:38:00,
2013-06-10 07:40:00,68.5,58.4,29.70,NW,320,5.8,6.3,70,0.00,,OVC017,0.00,VWS V14.01,2013-06-10 12:40:00,
2013-06-10 07:43:00,68.7,59.3,29.72,NNW,333,5.4,5.8,72,0.00,,OVC017,0.00,VWS V14.01,2013-06-10 12:43:00,
2013-06-10 07:44:00,68.5,58.4,29.72,NNW,342,5.8,6.3,70,0.00,,OVC017,0.00,VWS V14.01,2013-06-10 12:44:00,
2013-06-10 07:45:00,68.5,57.6,29.72,North,349,5.8,7.6,68,0.00,,OVC017,0.00,VWS V14.01,2013-06-10 12:45:00,
2013-06-10 07:49:00,68.7,58.5,29.72,NW,314,5.8,5.8,70,0.00,,OVC017,0.00,VWS V14.01,2013-06-10 12:49:00,
2013-06-10 07:51:00,68.7,59.3,29.72,NW,315,5.8,5.8,72,0.00,,OVC017,0.00,VWS V14.01,2013-06-10 12:51:00,
2013-06-10 07:54:00,68.7,57.7,29.72,NW,325,5.8,7.6,68,0.00,,OVC017,0.00,VWS V14.01,2013-06-10 12:54:00,
2013-06-10 07:55:00,68.7,57.7,29.72,NW,323,6.3,7.6,68,0.00,,OVC017,0.00,VWS V14.01,2013-06-10 12:55:00,
2013-06-10 07:56:00,68.7,57.7,29.72,NNW,343,5.8,6.3,68,0.00,,OVC017,0.00,VWS V14.01,2013-06-10 12:56:00,
2013-06-10 07:59:00,68.7,57.7,29.72,NNW,341,5.4,6.3,68,0.00,,OVC017,0.00,VWS V14.01,2013-06-10 12:59:00,
2013-06-10 08:00:00,68.7,57.7,29.72,NNW,330,4.0,8.1,68,0.00,,OVC017,0.00,VWS V14.01,2013-06-10 13:00:00,
2013-06-10 08:02:00,68.5,56.7,29.72,NW,319,5.8,8.1,66,0.00,,OVC017,0.00,VWS V14.01,2013-06-10 13:02:00,
2013-06-10 08:04:00,70.7,57.9,29.72,NW,323,5.8,7.6,64,0.00,,OVC043,0.00,VWS V14.01,2013-06-10 13:04:00,
2013-06-10 08:05:00,70.7,57.9,29.72,NNW,333,6.3,6.3,64,0.00,,OVC043,0.00,VWS V14.01,2013-06-10 13:05:00,
2013-06-10 08:06:00,70.9,56.3,29.72,NW,325,6.3,7.6,60,0.00,,OVC043,0.00,VWS V14.01,2013-06-10 13:06:00,
2013-06-10 08:07:00,71.1,56.5,29.72,NW,324,6.3,6.3,60,0.00,,OVC043,0.00,VWS V14.01,2013-06-10 13:07:00,
2013-06-10 08:09:00,70.5,55.0,29.72,NNW,329,6.3,6.3,58,0.00,,OVC043,0.00,VWS V14.01,2013-06-10 13:09:00,
2013-06-10 08:10:00,71.2,55.7,29.72,NNW,329,5.8,5.8,58,0.00,,OVC043,0.00,VWS V14.01,2013-06-10 13:10:00,
2013-06-10 08:12:00,71.4,54.9,29.72,NNE,15,5.4,5.4,56,0.00,,OVC043,0.00,VWS V14.01,2013-06-10 13:12:00,
2013-06-10 08:13:00,70.9,54.4,29.72,NNE,33,6.3,6.3,56,0.00,,OVC043,0.00,VWS V14.01,2013-06-10 13:13:00,
2013-06-10 08:14:00,71.1,54.6,29.72,North,5,3.6,3.6,56,0.00,,OVC043,0.00,VWS V14.01,2013-06-10 13:14:00,
2013-06-10 08:16:00,71.6,55.1,29.72,NNE,24,3.6,5.8,56,0.00,,OVC043,0.00,VWS V14.01,2013-06-10 13:16:00,
2013-06-10 08:17:00,71.8,54.3,29.72,NNE,15,5.4,5.4,54,0.00,,OVC043,0.00,VWS V14.01,2013-06-10 13:17:00,
2013-06-10 08:18:00,72.1,53.6,29.72,North,0,8.3,8.3,52,0.00,,OVC043,0.00,VWS V14.01,2013-06-10 13:18:00,
2013-06-10 08:22:00,72.9,50.9,29.72,NNW,338,3.1,5.8,46,0.00,,OVC043,0.00,VWS V14.01,2013-06-10 13:22:00,
2013-06-10 08:24:00,73.6,51.5,29.72,North,3,6.3,6.3,46,0.00,,OVC043,0.00,VWS V14.01,2013-06-10 13:24:00,
2013-06-10 08:26:00,73.6,50.3,29.75,NNE,28,5.8,8.7,44,0.00,,OVC043,0.00,VWS V14.01,2013-06-10 13:26:00,
2013-06-10 08:27:00,73.4,50.2,29.75,NNW,340,5.8,5.8,44,0.00,,OVC043,0.00,VWS V14.01,2013-06-10 13:27:00,
2013-06-10 08:28:00,73.8,49.3,29.75,NNW,341,5.4,5.8,42,0.00,,OVC043,0.00,VWS V14.01,2013-06-10 13:28:00,
2013-06-10 08:30:00,73.8,49.3,29.75,NNW,345,4.0,8.1,42,0.00,,OVC043,0.00,VWS V14.01,2013-06-10 13:30:00,
2013-06-10 08:31:00,74.3,49.8,29.75,North,353,4.9,6.3,42,0.00,,OVC043,0.00,VWS V14.01,2013-06-10 13:31:00,
2013-06-10 08:32:00,74.7,50.1,29.75,NNW,333,5.8,5.8,42,0.00,,OVC043,0.00,VWS V14.01,2013-06-10 13:32:00,
2013-06-10 08:33:00,73.8,49.3,29.75,NNW,333,5.4,5.8,42,0.00,,OVC043,0.00,VWS V14.01,2013-06-10 13:33:00,
2013-06-10 08:35:00,72.1,49.0,29.75,North,8,6.3,6.3,44,0.00,,OVC043,0.00,VWS V14.01,2013-06-10 13:35:00,
2013-06-10 08:36:00,71.8,48.7,29.75,North,353,4.0,6.7,44,0.00,,OVC043,0.00,VWS V14.01,2013-06-10 13:36:00,
2013-06-10 08:37:00,71.1,49.3,29.75,NNW,346,3.6,4.9,46,0.00,,OVC043,0.00,VWS V14.01,2013-06-10 13:37:00,
2013-06-10 08:38:00,70.5,48.8,29.75,NNW,335,6.3,6.3,46,0.00,,OVC043,0.00,VWS V14.01,2013-06-10 13:38:00,
2013-06-10 08:39:00,70.5,48.8,29.75,NNW,335,6.3,6.3,46,0.00,,OVC043,0.00,VWS V14.01,2013-06-10 13:39:00,
2013-06-10 08:41:00,70.0,49.4,29.75,NW,323,5.4,5.4,48,0.00,,OVC043,0.00,VWS V14.01,2013-06-10 13:41:00,
2013-06-10 08:42:00,69.8,49.2,29.75,NW,323,5.4,5.4,48,0.00,,OVC043,0.00,VWS V14.01,2013-06-10 13:42:00,
2013-06-10 08:43:00,69.6,50.2,29.75,NNW,334,4.0,5.4,50,0.00,,OVC043,0.00,VWS V14.01,2013-06-10 13:43:00,
2013-06-10 08:44:00,69.4,50.0,29.75,NNW,345,5.8,6.3,50,0.00,,OVC043,0.00,VWS V14.01,2013-06-10 13:44:00,
2013-06-10 08:47:00,69.3,49.8,29.75,NNW,330,5.4,6.3,50,0.00,,OVC043,0.00,VWS V14.01,2013-06-10 13:47:00,
2013-06-10 08:48:00,69.3,49.8,29.75,North,349,4.9,5.4,50,0.00,,OVC043,0.00,VWS V14.01,2013-06-10 13:48:00,
2013-06-10 08:49:00,68.9,49.5,29.75,NNW,331,5.4,6.7,50,0.00,,OVC043,0.00,VWS V14.01,2013-06-10 13:49:00,
2013-06-10 08:50:00,69.1,49.7,29.75,NW,314,4.9,5.4,50,0.00,,OVC043,0.00,VWS V14.01,2013-06-10 13:50:00,
2013-06-10 08:52:00,69.4,50.0,29.75,NNW,337,5.4,5.4,50,0.00,,OVC043,0.00,VWS V14.01,2013-06-10 13:52:00,
2013-06-10 08:53:00,69.6,50.2,29.75,NW,322,6.7,7.6,50,0.00,,OVC043,0.00,VWS V14.01,2013-06-10 13:53:00,
2013-06-10 08:55:00,69.6,49.1,29.75,North,350,4.9,5.8,48,0.00,,OVC043,0.00,VWS V14.01,2013-06-10 13:55:00,
2013-06-10 08:58:00,70.3,50.8,29.75,NNE,12,2.7,5.8,50,0.00,,OVC043,0.00,VWS V14.01,2013-06-10 13:58:00,
2013-06-10 08:59:00,70.0,49.4,29.75,NNE,25,8.7,8.7,48,0.00,,OVC043,0.00,VWS V14.01,2013-06-10 13:59:00,
2013-06-10 09:00:00,70.0,48.3,29.75,North,353,4.0,8.7,46,0.00,,OVC043,0.00,VWS V14.01,2013-06-10 14:00:00,
2013-06-10 09:01:00,70.2,48.4,29.75,NW,326,3.6,4.9,46,0.00,,OVC043,0.00,VWS V14.01,2013-06-10 14:01:00,
2013-06-10 09:04:00,69.4,47.8,29.75,NNW,335,4.9,6.3,46,0.00,,SCT023,0.00,VWS V14.01,2013-06-10 14:04:00,
2013-06-10 09:05:00,69.4,48.9,29.75,NNW,338,3.1,3.1,48,0.00,,SCT023,0.00,VWS V14.01,2013-06-10 14:05:00,
2013-06-10 09:06:00,69.4,48.9,29.75,NNW,342,4.9,4.9,48,0.00,,SCT023,0.00,VWS V14.01,2013-06-10 14:06:00,
2013-06-10 09:09:00,69.1,49.7,29.75,NW,322,4.9,4.9,50,0.00,,SCT023,0.00,VWS V14.01,2013-06-10 14:09:00,
2013-06-10 09:10:00,69.1,48.6,29.75,NW,326,6.3,6.3,48,0.00,,SCT023,0.00,VWS V14.01,2013-06-10 14:10:00,
2013-06-10 09:11:00,69.1,49.7,29.75,NW,326,5.4,5.4,50,0.00,,SCT023,0.00,VWS V14.01,2013-06-10 14:11:00,
2013-06-10 09:12:00,68.7,48.3,29.75,NNW,334,4.0,4.9,48,0.00,,SCT023,0.00,VWS V14.01,2013-06-10 14:12:00,
2013-06-10 09:15:00,68.7,50.4,29.75,NNW,332,6.3,6.3,52,0.00,,SCT023,0.00,VWS V14.01,2013-06-10 14:15:00,
2013-06-10 09:16:00,68.5,49.2,29.75,NNW,334,5.8,6.3,50,0.00,,SCT023,0.00,VWS V14.01,2013-06-10 14:16:00,
2013-06-10 09:18:00,68.5,49.2,29.75,NNW,345,6.3,6.3,50,0.00,,SCT023,0.00,VWS V14.01,2013-06-10 14:18:00,
2013-06-10 09:20:00,68.4,49.0,29.75,North,353,8.1,8.1,50,0.00,,SCT023,0.00,VWS V14.01,2013-06-10 14:20:00,
2013-06-10 09:21:00,68.4,47.9,29.75,NNW,340,5.8,5.8,48,0.00,,SCT023,0.00,VWS V14.01,2013-06-10 14:21:00,
2013-06-10 09:22:00,68.4,47.9,29.75,NNW,341,5.4,5.8,48,0.00,,SCT023,0.00,VWS V14.01,2013-06-10 14:22:00,
2013-06-10 09:23:00,68.2,48.8,29.75,North,3,7.6,8.1,50,0.00,,SCT023,0.00,VWS V14.01,2013-06-10 14:23:00,
2013-06-10 09:24:00,68.0,48.7,29.75,North,353,5.8,6.3,50,0.00,,SCT023,0.00,VWS V14.01,2013-06-10 14:24:00,
2013-06-10 09:26:00,68.0,48.7,29.75,North,0,9.6,9.6,50,0.00,,SCT023,0.00,VWS V14.01,2013-06-10 14:26:00,
2013-06-10 09:27:00,68.0,49.7,29.75,North,357,7.6,7.6,52,0.00,,SCT023,0.00,VWS V14.01,2013-06-10 14:27:00,
2013-06-10 09:29:00,67.8,49.6,29.75,North,353,6.3,10.5,52,0.00,,SCT023,0.00,VWS V14.01,2013-06-10 14:29:00,
2013-06-10 09:32:00,68.0,49.7,29.75,North,353,4.9,6.3,52,0.00,,SCT023,0.00,VWS V14.01,2013-06-10 14:32:00,
2013-06-10 09:33:00,68.0,49.7,29.75,North,357,4.5,5.4,52,0.00,,BKN023,0.00,VWS V14.01,2013-06-10 14:33:00,
2013-06-10 09:34:00,68.2,50.9,29.75,NNW,341,5.8,5.8,54,0.00,,BKN023,0.00,VWS V14.01,2013-06-10 14:34:00,
2013-06-10 09:35:00,68.0,49.7,29.75,North,5,7.6,7.6,52,0.00,,BKN023,0.00,VWS V14.01,2013-06-10 14:35:00,
2013-06-10 09:37:00,68.0,50.8,29.75,North,1,6.3,6.7,54,0.00,,BKN023,0.00,VWS V14.01,2013-06-10 14:37:00,
2013-06-10 09:39:00,68.0,49.7,29.75,NNE,23,8.7,8.7,52,0.00,,BKN023,0.00,VWS V14.01,2013-06-10 14:39:00,
2013-06-10 09:40:00,68.2,49.9,29.75,NNE,24,4.0,5.8,52,0.00,,BKN023,0.00,VWS V14.01,2013-06-10 14:40:00,
2013-06-10 09:42:00,68.4,50.1,29.75,NNW,348,6.3,6.3,52,0.00,,BKN023,0.00,VWS V14.01,2013-06-10 14:42:00,
2013-06-10 09:44:00,68.4,50.1,29.75,North,2,6.3,8.7,52,0.00,,BKN023,0.00,VWS V14.01,2013-06-10 14:44:00,
2013-06-10 09:45:00,68.4,50.1,29.75,North,2,6.3,6.3,52,0.00,,BKN023,0.00,VWS V14.01,2013-06-10 14:45:00,
2013-06-10 09:48:00,68.2,48.8,29.75,NNE,12,5.4,7.6,50,0.00,,BKN023,0.00,VWS V14.01,2013-06-10 14:48:00,
2013-06-10 09:49:00,68.4,50.1,29.75,North,9,5.8,5.8,52,0.00,,BKN023,0.00,VWS V14.01,2013-06-10 14:49:00,
2013-06-10 09:51:00,68.5,50.2,29.75,North,357,3.6,5.4,52,0.00,,BKN023,0.00,VWS V14.01,2013-06-10 14:51:00,
2013-06-10 09:53:00,68.7,50.4,29.75,NNW,346,4.9,4.9,52,0.00,,BKN023,0.00,VWS V14.01,2013-06-10 14:53:00,
2013-06-10 09:54:00,68.7,50.4,29.75,North,0,6.3,6.3,52,0.00,,BKN023,0.00,VWS V14.01,2013-06-10 14:54:00,
2013-06-10 09:56:00,68.7,48.3,29.75,North,6,4.9,6.7,48,0.00,,BKN023,0.00,VWS V14.01,2013-06-10 14:56:00,
2013-06-10 09:58:00,68.7,48.3,29.75,North,353,7.6,8.1,48,0.00,,BKN023,0.00,VWS V14.01,2013-06-10 14:58:00,
2013-06-10 09:59:00,68.9,48.4,29.75,NNW,339,5.8,5.8,48,0.00,,BKN023,0.00,VWS V14.01,2013-06-10 14:59:00,
2013-06-10 10:01:00,68.9,47.3,29.75,NNW,332,7.2,7.6,46,0.00,,BKN023,0.00,VWS V14.01,2013-06-10 15:01:00,
2013-06-10 10:04:00,69.1,47.5,29.75,North,2,6.3,6.3,46,0.00,,OVC029,0.00,VWS V14.01,2013-06-10 15:04:00,
2013-06-10 10:05:00,69.1,47.5,29.75,NNW,345,4.9,5.4,46,0.00,,OVC029,0.00,VWS V14.01,2013-06-10 15:05:00,
2013-06-10 10:08:00,69.3,47.6,29.75,North,7,5.4,5.8,46,0.00,,OVC029,0.00,VWS V14.01,2013-06-10 15:08:00,
2013-06-10 10:09:00,69.6,48.0,29.75,NNW,330,4.0,4.9,46,0.00,,OVC029,0.00,VWS V14.01,2013-06-10 15:09:00,
2013-06-10 10:10:00,69.6,48.0,29.75,NNW,330,6.3,6.3,46,0.00,,OVC029,0.00,VWS V14.01,2013-06-10 15:10:00,
2013-06-10 10:11:00,69.8,48.1,29.75,NNW,341,5.8,6.3,46,0.00,,OVC029,0.00,VWS V14.01,2013-06-10 15:11:00,
2013-06-10 10:13:00,69.8,48.1,29.75,NW,325,5.4,8.1,46,0.00,,OVC029,0.00,VWS V14.01,2013-06-10 15:13:00,
2013-06-10 10:14:00,70.0,47.1,29.75,NNW,335,5.4,6.3,44,0.00,,OVC029,0.00,VWS V14.01,2013-06-10 15:14:00,
2013-06-10 10:16:00,70.3,48.6,29.75,NW,317,6.3,6.3,46,0.00,,OVC029,0.00,VWS V14.01,2013-06-10 15:16:00,
2013-06-10 10:18:00,70.5,47.6,29.75,NNW,335,5.8,5.8,44,0.00,,OVC029,0.00,VWS V14.01,2013-06-10 15:18:00,
2013-06-10 10:19:00,70.5,47.6,29.75,NW,326,5.8,5.8,44,0.00,,OVC029,0.00,VWS V14.01,2013-06-10 15:19:00,
2013-06-10 10:22:00,70.9,47.9,29.75,NW,310,4.5,5.8,44,0.00,,OVC029,0.00,VWS V14.01,2013-06-10 15:22:00,
2013-06-10 10:24:00,71.4,48.4,29.75,NW,318,5.8,6.3,44,0.00,,OVC029,0.00,VWS V14.01,2013-06-10 15:24:00,
2013-06-10 10:29:00,72.0,47.6,29.75,NW,316,5.8,5.8,42,0.00,,OVC029,0.00,VWS V14.01,2013-06-10 15:29:00,
2013-06-10 10:30:00,71.8,47.5,29.75,NW,324,8.1,8.3,42,0.00,,OVC029,0.00,VWS V14.01,2013-06-10 15:30:00,
2013-06-10 10:32:00,72.1,47.8,29.75,North,0,6.3,7.6,42,0.00,,OVC029,0.00,VWS V14.01,2013-06-10 15:32:00,
2013-06-10 10:34:00,72.0,45.0,29.75,NNW,340,7.6,7.6,38,0.00,,OVC029,0.00,VWS V14.01,2013-06-10 15:34:00,
2013-06-10 10:35:00,72.1,47.8,29.75,NNE,14,7.6,7.6,42,0.00,,OVC029,0.00,VWS V14.01,2013-06-10 15:35:00,
2013-06-10 10:37:00,72.3,40.8,29.75,NW,313,8.1,8.1,32,0.00,,OVC029,0.00,VWS V14.01,2013-06-10 15:37:00,
2013-06-10 10:38:00,72.7,45.6,29.75,NW,313,5.8,8.1,38,0.00,,OVC029,0.00,VWS V14.01,2013-06-10 15:38:00,
2013-06-10 10:40:00,72.7,45.6,29.75,NW,315,5.8,7.6,38,0.00,,OVC029,0.00,VWS V14.01,2013-06-10 15:40:00,
2013-06-10 10:41:00,72.7,41.2,29.75,NW,317,7.6,8.1,32,0.00,,OVC029,0.00,VWS V14.01,2013-06-10 15:41:00,
2013-06-10 10:43:00,72.7,45.6,29.75,NNW,333,5.8,6.3,38,0.00,,OVC029,0.00,VWS V14.01,2013-06-10 15:43:00,
2013-06-10 10:44:00,72.5,45.5,29.75,NNW,330,5.4,8.3,38,0.00,,OVC029,0.00,VWS V14.01,2013-06-10 15:44:00,
2013-06-10 10:47:00,72.9,45.8,29.75,WNW,301,4.5,4.5,38,0.00,,OVC029,0.00,VWS V14.01,2013-06-10 15:47:00,
2013-06-10 10:48:00,73.0,46.0,29.75,WNW,291,3.1,4.0,38,0.00,,OVC029,0.00,VWS V14.01,2013-06-10 15:48:00,
2013-06-10 10:49:00,73.0,46.0,29.75,NW,322,4.0,4.9,38,0.00,,OVC029,0.00,VWS V14.01,2013-06-10 15:49:00,
2013-06-10 10:52:00,73.0,46.0,29.75,NW,322,4.0,4.0,38,0.00,,OVC029,0.00,VWS V14.01,2013-06-10 15:52:00,
2013-06-10 10:54:00,73.0,46.0,29.75,WNW,299,5.4,6.3,38,0.00,,OVC029,0.00,VWS V14.01,2013-06-10 15:54:00,
2013-06-10 10:55:00,73.0,46.0,29.78,WNW,298,4.0,5.4,38,0.00,,OVC029,0.00,VWS V14.01,2013-06-10 15:55:00,
2013-06-10 10:57:00,73.0,41.5,29.78,NW,318,7.6,7.6,32,0.00,,OVC029,0.00,VWS V14.01,2013-06-10 15:57:00,
2013-06-10 10:59:00,72.9,45.8,29.78,NW,324,3.6,5.4,38,0.00,,OVC029,0.00,VWS V14.01,2013-06-10 15:59:00,
2013-06-10 11:00:00,72.9,41.3,29.78,NW,321,8.7,8.7,32,0.00,,OVC029,0.00,VWS V14.01,2013-06-10 16:00:00,
2013-06-10 11:02:00,73.0,46.0,29.78,WNW,285,3.1,5.8,38,0.00,,OVC029,0.00,VWS V14.01,2013-06-10 16:02:00,
2013-06-10 11:03:00,73.0,46.0,29.78,NNW,337,5.4,5.4,38,0.00,,OVC029,0.00,VWS V14.01,2013-06-10 16:03:00,
2013-06-10 11:06:00,73.0,41.5,29.78,NNE,16,10.1,10.1,32,0.00,,BKN031,0.00,VWS V14.01,2013-06-10 16:06:00,
2013-06-10 11:07:00,72.9,41.3,29.78,NNW,346,5.8,6.3,32,0.00,,BKN031,0.00,VWS V14.01,2013-06-10 16:07:00,
2013-06-10 11:08:00,73.0,41.5,29.78,NW,304,3.1,5.4,32,0.00,,BKN031,0.00,VWS V14.01,2013-06-10 16:08:00,
2013-06-10 11:09:00,73.0,41.5,29.78,NNW,332,5.8,5.8,32,0.00,,BKN031,0.00,VWS V14.01,2013-06-10 16:09:00,
2013-06-10 11:11:00,72.9,41.3,29.78,NW,324,4.0,8.7,32,0.00,,BKN031,0.00,VWS V14.01,2013-06-10 16:11:00,
2013-06-10 11:13:00,72.9,45.8,29.78,North,10,5.4,5.4,38,0.00,,BKN031,0.00,VWS V14.01,2013-06-10 16:13:00,
2013-06-10 11:14:00,72.9,45.8,29.78,NNW,331,8.1,8.1,38,0.00,,BKN031,0.00,VWS V14.01,2013-06-10 16:14:00,
2013-06-10 11:15:00,72.7,41.2,29.78,NW,325,10.5,10.5,32,0.00,,BKN031,0.00,VWS V14.01,2013-06-10 16:15:00,
2013-06-10 11:17:00,72.7,41.2,29.78,NW,316,8.1,8.3,32,0.00,,BKN031,0.00,VWS V14.01,2013-06-10 16:17:00,
2013-06-10 11:18:00,72.7,41.2,29.78,North,353,5.8,8.1,32,0.00,,BKN031,0.00,VWS V14.01,2013-06-10 16:18:00,
2013-06-10 11:20:00,72.9,41.3,29.78,NW,313,5.8,9.2,32,0.00,,BKN031,0.00,VWS V14.01,2013-06-10 16:20:00,
2013-06-10 11:22:00,73.0,41.5,29.78,NNW,342,6.3,9.2,32,0.00,,BKN031,0.00,VWS V14.01,2013-06-10 16:22:00,
2013-06-10 11:23:00,73.0,41.5,29.78,North,357,5.8,8.1,32,0.00,,BKN031,0.00,VWS V14.01,2013-06-10 16:23:00,
2013-06-10 11:25:00,72.5,41.0,29.78,North,357,15.4,15.4,32,0.00,,BKN031,0.00,VWS V14.01,2013-06-10 16:25:00,
2013-06-10 11:27:00,72.9,41.3,29.78,NW,308,6.7,6.7,32,0.00,,BKN031,0.00,VWS V14.01,2013-06-10 16:27:00,
2013-06-10 11:29:00,72.7,41.2,29.78,NNW,328,7.2,7.2,32,0.00,,BKN031,0.00,VWS V14.01,2013-06-10 16:29:00,
2013-06-10 11:31:00,72.9,45.8,29.78,NNW,332,6.3,6.3,38,0.00,,BKN031,0.00,VWS V14.01,2013-06-10 16:31:00,
2013-06-10 11:32:00,72.9,41.3,29.78,NNW,337,4.9,4.9,32,0.00,,BKN031,0.00,VWS V14.01,2013-06-10 16:32:00,
2013-06-10 11:34:00,73.0,41.5,29.78,NW,317,3.6,5.8,32,0.00,,BKN031,0.00,VWS V14.01,2013-06-10 16:34:00,
2013-06-10 11:36:00,73.2,46.1,29.78,NW,326,5.4,6.3,38,0.00,,BKN031,0.00,VWS V14.01,2013-06-10 16:36:00,
2013-06-10 11:37:00,73.2,41.6,29.78,NW,312,3.6,6.3,32,0.00,,BKN031,0.00,VWS V14.01,2013-06-10 16:37:00,
2013-06-10 11:38:00,73.2,41.6,29.78,WNW,296,4.9,4.9,32,0.00,,BKN031,0.00,VWS V14.01,2013-06-10 16:38:00,
2013-06-10 11:39:00,73.6,41.9,29.78,NNW,330,6.3,7.6,32,0.00,,BKN031,0.00,VWS V14.01,2013-06-10 16:39:00,
2013-06-10 11:41:00,73.6,41.9,29.78,NNW,340,4.9,6.7,32,0.00,,BKN031,0.00,VWS V14.01,2013-06-10 16:41:00,
2013-06-10 11:42:00,73.6,41.9,29.78,NNW,336,4.0,4.9,32,0.00,,BKN031,0.00,VWS V14.01,2013-06-10 16:42:00,
2013-06-10 11:43:00,74.1,42.4,29.78,North,0,7.6,7.6,32,0.00,,BKN031,0.00,VWS V14.01,2013-06-10 16:43:00,
2013-06-10 11:46:00,74.3,42.6,29.78,NNW,329,7.2,7.2,32,0.00,,BKN031,0.00,VWS V14.01,2013-06-10 16:46:00,
2013-06-10 11:47:00,74.1,42.4,29.78,NW,325,3.6,5.4,32,0.00,,BKN031,0.00,VWS V14.01,2013-06-10 16:47:00,
2013-06-10 11:48:00,74.5,42.7,29.78,NW,307,5.4,6.3,32,0.00,,BKN031,0.00,VWS V14.01,2013-06-10 16:48:00,
2013-06-10 11:52:00,74.8,43.0,29.78,NW,305,6.3,6.3,32,0.00,,BKN031,0.00,VWS V14.01,2013-06-10 16:52:00,
2013-06-10 11:53:00,75.0,43.2,29.78,NW,316,4.0,4.0,32,0.00,,BKN031,0.00,VWS V14.01,2013-06-10 16:53:00,
2013-06-10 11:54:00,75.0,43.2,29.78,NNW,328,4.0,5.4,32,0.00,,BKN031,0.00,VWS V14.01,2013-06-10 16:54:00,
2013-06-10 11:57:00,75.2,41.7,29.78,NNW,330,7.2,7.2,30,0.00,,BKN031,0.00,VWS V14.01,2013-06-10 16:57:00,
2013-06-10 11:58:00,75.2,41.7,29.78,NW,311,2.7,2.7,30,0.00,,BKN031,0.00,VWS V14.01,2013-06-10 16:58:00,
2013-06-10 11:59:00,75.0,43.2,29.78,NW,308,5.4,5.4,32,0.00,,BKN031,0.00,VWS V14.01,2013-06-10 16:59:00,
2013-06-10 12:00:00,74.8,43.0,29.78,West,279,5.4,5.4,32,0.00,,BKN031,0.00,VWS V14.01,2013-06-10 17:00:00,
2013-06-10 12:02:00,74.8,43.0,29.78,WNW,292,3.1,6.3,32,0.00,,BKN031,0.00,VWS V14.01,2013-06-10 17:02:00,
2013-06-10 12:04:00,74.7,42.9,29.78,WNW,300,5.4,5.8,32,0.00,,OVC035,0.00,VWS V14.01,2013-06-10 17:04:00,
2013-06-10 12:05:00,74.7,42.9,29.78,WNW,285,3.1,5.8,32,0.00,,OVC035,0.00,VWS V14.01,2013-06-10 17:05:00,
2013-06-10 12:07:00,74.8,37.7,29.78,WNW,296,4.9,6.3,26,0.00,,OVC035,0.00,VWS V14.01,2013-06-10 17:07:00,
2013-06-10 12:09:00,75.4,38.2,29.78,NW,324,6.3,7.6,26,0.00,,OVC035,0.00,VWS V14.01,2013-06-10 17:09:00,
2013-06-10 12:10:00,75.4,38.2,29.78,NW,316,5.4,6.7,26,0.00,,OVC035,0.00,VWS V14.01,2013-06-10 17:10:00,
2013-06-10 12:11:00,75.6,42.0,29.78,WSW,254,5.8,6.7,30,0.00,,OVC035,0.00,VWS V14.01,2013-06-10 17:11:00,
2013-06-10 12:13:00,75.6,38.3,29.78,WNW,299,5.4,5.4,26,0.00,,OVC035,0.00,VWS V14.01,2013-06-10 17:13:00,
2013-06-10 12:14:00,75.9,38.6,29.78,WSW,240,4.0,5.4,26,0.00,,OVC035,0.00,VWS V14.01,2013-06-10 17:14:00,
2013-06-10 12:15:00,75.9,42.3,29.78,WNW,293,4.0,4.0,30,0.00,,OVC035,0.00,VWS V14.01,2013-06-10 17:15:00,
2013-06-10 12:17:00,76.3,38.9,29.78,WNW,303,6.3,6.3,26,0.00,,OVC035,0.00,VWS V14.01,2013-06-10 17:17:00,
2013-06-10 12:18:00,76.5,39.1,29.78,NNW,327,5.8,5.8,26,0.00,,OVC035,0.00,VWS V14.01,2013-06-10 17:18:00,
2013-06-10 12:20:00,76.8,39.4,29.78,NW,306,5.8,5.8,26,0.00,,OVC035,0.00,VWS V14.01,2013-06-10 17:20:00,
2013-06-10 12:21:00,76.8,39.4,29.78,NNW,327,8.3,8.3,26,0.00,,OVC035,0.00,VWS V14.01,2013-06-10 17:21:00,
2013-06-10 12:22:00,76.6,39.2,29.78,NNW,329,7.6,7.6,26,0.00,,OVC035,0.00,VWS V14.01,2013-06-10 17:22:00,
2013-06-10 12:24:00,76.8,39.4,29.78,WNW,302,4.0,6.7,26,0.00,,OVC035,0.00,VWS V14.01,2013-06-10 17:24:00,
2013-06-10 12:25:00,76.8,39.4,29.78,NW,319,5.4,6.3,26,0.00,,OVC035,0.00,VWS V14.01,2013-06-10 17:25:00,
2013-06-10 12:26:00,76.6,39.2,29.78,NNW,331,5.4,7.6,26,0.00,,OVC035,0.00,VWS V14.01,2013-06-10 17:26:00,
2013-06-10 12:27:00,76.6,39.2,29.78,NW,318,7.6,7.6,26,0.00,,OVC035,0.00,VWS V14.01,2013-06-10 17:27:00,
2013-06-10 12:28:00,76.8,39.4,29.78,NW,322,5.4,7.6,26,0.00,,OVC035,0.00,VWS V14.01,2013-06-10 17:28:00,
2013-06-10 12:30:00,76.5,39.1,29.78,North,357,6.3,8.3,26,0.00,,OVC035,0.00,VWS V14.01,2013-06-10 17:30:00,
2013-06-10 12:31:00,76.3,38.9,29.78,NNW,339,8.3,8.3,26,0.00,,OVC035,0.00,VWS V14.01,2013-06-10 17:31:00,
2013-06-10 12:32:00,76.1,38.8,29.78,NW,319,7.6,8.3,26,0.00,,OVC035,0.00,VWS V14.01,2013-06-10 17:32:00,
2013-06-10 12:33:00,76.1,38.8,29.78,NW,319,3.6,3.6,26,0.00,,OVC035,0.00,VWS V14.01,2013-06-10 17:33:00,
2013-06-10 12:34:00,75.7,38.5,29.78,North,353,5.4,5.4,26,0.00,,OVC035,0.00,VWS V14.01,2013-06-10 17:34:00,
2013-06-10 12:35:00,76.1,38.8,29.78,NNW,333,6.3,7.6,26,0.00,,OVC035,0.00,VWS V14.01,2013-06-10 17:35:00,
2013-06-10 12:36:00,75.9,38.6,29.78,NNW,331,4.0,6.3,26,0.00,,OVC035,0.00,VWS V14.01,2013-06-10 17:36:00,
2013-06-10 12:37:00,75.9,38.6,29.78,NW,321,5.4,5.4,26,0.00,,OVC035,0.00,VWS V14.01,2013-06-10 17:37:00,
2013-06-10 12:39:00,76.1,38.8,29.78,WNW,302,5.4,5.8,26,0.00,,OVC035,0.00,VWS V14.01,2013-06-10 17:39:00,
2013-06-10 12:40:00,76.1,38.8,29.78,West,268,3.6,4.9,26,0.00,,OVC035,0.00,VWS V14.01,2013-06-10 17:40:00,
2013-06-10 12:41:00,75.9,38.6,29.78,NNW,340,7.6,7.6,26,0.00,,OVC035,0.00,VWS V14.01,2013-06-10 17:41:00,
2013-06-10 12:42:00,75.9,38.6,29.78,NNW,327,7.6,8.7,26,0.00,,OVC035,0.00,VWS V14.01,2013-06-10 17:42:00,
2013-06-10 12:45:00,75.7,38.5,29.78,North,353,5.4,8.1,26,0.00,,OVC035,0.00,VWS V14.01,2013-06-10 17:45:00,
2013-06-10 12:46:00,76.1,38.8,29.78,NW,316,5.8,6.3,26,0.00,,OVC035,0.00,VWS V14.01,2013-06-10 17:46:00,
2013-06-10 12:47:00,76.3,38.9,29.78,NW,313,6.3,6.3,26,0.00,,OVC035,0.00,VWS V14.01,2013-06-10 17:47:00,
2013-06-10 12:48:00,76.5,39.1,29.78,NW,311,5.8,5.8,26,0.00,,OVC035,0.00,VWS V14.01,2013-06-10 17:48:00,
2013-06-10 12:50:00,76.6,39.2,29.78,NW,307,5.4,6.3,26,0.00,,OVC035,0.00,VWS V14.01,2013-06-10 17:50:00,
2013-06-10 12:51:00,76.8,39.4,29.78,North,357,5.4,6.3,26,0.00,,OVC035,0.00,VWS V14.01,2013-06-10 17:51:00,
2013-06-10 12:52:00,77.0,39.5,29.78,NW,320,6.3,6.3,26,0.00,,OVC035,0.00,VWS V14.01,2013-06-10 17:52:00,
2013-06-10 12:53:00,77.0,39.5,29.78,NW,312,4.0,6.3,26,0.00,,OVC035,0.00,VWS V14.01,2013-06-10 17:53:00,
2013-06-10 12:55:00,77.4,39.8,29.78,NNW,329,7.6,7.6,26,0.00,,OVC035,0.00,VWS V14.01,2013-06-10 17:55:00,
2013-06-10 12:56:00,77.4,39.8,29.78,North,357,6.3,8.3,26,0.00,,OVC035,0.00,VWS V14.01,2013-06-10 17:56:00,
2013-06-10 12:57:00,77.0,39.5,29.78,North,353,5.8,5.8,26,0.00,,OVC035,0.00,VWS V14.01,2013-06-10 17:57:00,
2013-06-10 12:58:00,77.4,39.8,29.78,NNW,327,6.3,6.3,26,0.00,,OVC035,0.00,VWS V14.01,2013-06-10 17:58:00,
2013-06-10 12:59:00,76.8,39.4,29.78,North,350,7.2,7.2,26,0.00,,OVC035,0.00,VWS V14.01,2013-06-10 17:59:00,
2013-06-10 13:00:00,77.4,39.8,29.78,NW,319,6.3,6.3,26,0.00,,OVC035,0.00,VWS V14.01,2013-06-10 18:00:00,
2013-06-10 13:01:00,77.4,39.8,29.78,NW,326,8.1,8.1,26,0.00,,OVC035,0.00,VWS V14.01,2013-06-10 18:01:00,
2013-06-10 13:03:00,76.6,39.2,29.78,NNW,338,7.6,7.6,26,0.00,,OVC035,0.00,VWS V14.01,2013-06-10 18:03:00,
2013-06-10 13:04:00,76.8,39.4,29.78,NNW,338,4.0,6.3,26,0.00,,OVC035,0.00,VWS V14.01,2013-06-10 18:04:00,
2013-06-10 13:05:00,77.0,39.5,29.78,NW,324,8.1,8.3,26,0.00,,OVC035,0.00,VWS V14.01,2013-06-10 18:05:00,
2013-06-10 13:06:00,77.2,39.7,29.78,NW,307,6.3,8.3,26,0.00,,OVC035,0.00,VWS V14.01,2013-06-10 18:06:00,
2013-06-10 13:07:00,77.4,39.8,29.78,WNW,302,4.0,4.0,26,0.00,,OVC035,0.00,VWS V14.01,2013-06-10 18:07:00,
2013-06-10 13:08:00,77.2,39.7,29.78,NNW,330,5.8,6.3,26,0.00,,OVC035,0.00,VWS V14.01,2013-06-10 18:08:00,
2013-06-10 13:09:00,77.2,39.7,29.78,NNW,329,5.4,7.6,26,0.00,,OVC035,0.00,VWS V14.01,2013-06-10 18:09:00,
2013-06-10 13:10:00,77.0,39.5,29.78,NNW,337,5.8,6.3,26,0.00,,OVC035,0.00,VWS V14.01,2013-06-10 18:10:00,
2013-06-10 13:11:00,76.8,39.4,29.78,North,353,5.8,6.3,26,0.00,,OVC035,0.00,VWS V14.01,2013-06-10 18:11:00,
2013-06-10 13:13:00,76.5,39.1,29.78,North,357,8.7,8.7,26,0.00,,OVC035,0.00,VWS V14.01,2013-06-10 18:13:00,
2013-06-10 13:14:00,76.5,39.1,29.78,NNW,338,8.3,8.3,26,0.00,,OVC035,0.00,VWS V14.01,2013-06-10 18:14:00,
2013-06-10 13:16:00,76.6,39.2,29.78,NNW,330,6.3,6.3,26,0.00,,OVC035,0.00,VWS V14.01,2013-06-10 18:16:00,
2013-06-10 13:17:00,76.5,39.1,29.78,NNW,328,8.7,8.7,26,0.00,,OVC035,0.00,VWS V14.01,2013-06-10 18:17:00,
2013-06-10 13:18:00,76.5,39.1,29.78,NW,315,6.3,7.6,26,0.00,,OVC035,0.00,VWS V14.01,2013-06-10 18:18:00,
2013-06-10 13:19:00,76.3,38.9,29.78,WNW,297,5.4,5.4,26,0.00,,OVC035,0.00,VWS V14.01,2013-06-10 18:19:00,
2013-06-10 13:20:00,76.5,39.1,29.78,NW,312,5.4,5.4,26,0.00,,OVC035,0.00,VWS V14.01,2013-06-10 18:20:00,
2013-06-10 13:22:00,76.5,39.1,29.78,NW,310,3.6,4.0,26,0.00,,OVC035,0.00,VWS V14.01,2013-06-10 18:22:00,
2013-06-10 13:24:00,76.6,39.2,29.78,NNW,328,2.2,3.6,26,0.00,,OVC035,0.00,VWS V14.01,2013-06-10 18:24:00,
2013-06-10 13:27:00,77.4,39.8,29.78,West,260,2.7,4.0,26,0.00,,OVC035,0.00,VWS V14.01,2013-06-10 18:27:00,
2013-06-10 13:28:00,77.4,39.8,29.78,West,268,2.7,3.6,26,0.00,,OVC035,0.00,VWS V14.01,2013-06-10 18:28:00,
2013-06-10 13:29:00,78.3,40.6,29.78,NW,321,4.0,4.0,26,0.00,,OVC035,0.00,VWS V14.01,2013-06-10 18:29:00,
2013-06-10 13:31:00,78.6,40.9,29.78,NW,310,4.0,5.4,26,0.00,,OVC035,0.00,VWS V14.01,2013-06-10 18:31:00,
2013-06-10 13:33:00,78.6,40.9,29.78,NW,320,4.0,4.0,26,0.00,,OVC035,0.00,VWS V14.01,2013-06-10 18:33:00,
2013-06-10 13:34:00,78.3,40.6,29.78,WNW,287,7.6,8.1,26,0.00,,OVC035,0.00,VWS V14.01,2013-06-10 18:34:00,
2013-06-10 13:36:00,78.1,40.4,29.78,WNW,284,4.0,5.8,26,0.00,,OVC035,0.00,VWS V14.01,2013-06-10 18:36:00,
2013-06-10 13:38:00,78.1,40.4,29.78,WNW,290,4.0,4.0,26,0.00,,OVC035,0.00,VWS V14.01,2013-06-10 18:38:00,
2013-06-10 13:39:00,78.1,40.4,29.78,WNW,303,4.0,5.8,26,0.00,,OVC035,0.00,VWS V14.01,2013-06-10 18:39:00,
2013-06-10 13:40:00,78.1,40.4,29.78,West,263,4.0,4.9,26,0.00,,OVC035,0.00,VWS V14.01,2013-06-10 18:40:00,
2013-06-10 13:41:00,78.1,40.4,29.78,West,261,3.1,3.6,26,0.00,,OVC035,0.00,VWS V14.01,2013-06-10 18:41:00,
2013-06-10 13:44:00,78.3,40.6,29.78,NNW,335,5.8,6.3,26,0.00,,OVC035,0.00,VWS V14.01,2013-06-10 18:44:00,
2013-06-10 13:45:00,78.3,40.6,29.78,WNW,299,4.9,5.8,26,0.00,,OVC035,0.00,VWS V14.01,2013-06-10 18:45:00,
2013-06-10 13:46:00,78.4,40.8,29.78,NW,321,5.4,5.4,26,0.00,,OVC035,0.00,VWS V14.01,2013-06-10 18:46:00,
2013-06-10 13:47:00,78.1,40.4,29.78,West,263,4.9,5.4,26,0.00,,OVC035,0.00,VWS V14.01,2013-06-10 18:47:00,
2013-06-10 13:49:00,77.9,40.3,29.78,WNW,295,5.8,5.8,26,0.00,,OVC035,0.00,VWS V14.01,2013-06-10 18:49:00,
2013-06-10 13:50:00,77.7,40.1,29.78,WNW,293,4.9,6.3,26,0.00,,OVC035,0.00,VWS V14.01,2013-06-10 18:50:00,
2013-06-10 13:51:00,77.7,40.1,29.78,West,280,3.6,3.6,26,0.00,,OVC035,0.00,VWS V14.01,2013-06-10 18:51:00,
2013-06-10 13:52:00,77.5,40.0,29.78,WNW,282,5.8,5.8,26,0.00,,OVC035,0.00,VWS V14.01,2013-06-10 18:52:00,
2013-06-10 13:53:00,77.4,39.8,29.78,WNW,297,8.1,8.1,26,0.00,,OVC035,0.00,VWS V14.01,2013-06-10 18:53:00,
2013-06-10 13:55:00,77.2,39.7,29.78,NW,318,3.6,5.4,26,0.00,,OVC035,0.00,VWS V14.01,2013-06-10 18:55:00,
2013-06-10 13:57:00,77.2,39.7,29.78,WNW,293,0.0,2.7,26,0.00,,OVC035,0.00,VWS V14.01,2013-06-10 18:57:00,
2013-06-10 13:59:00,77.5,40.0,29.78,West,262,6.3,6.3,26,0.00,,OVC035,0.00,VWS V14.01,2013-06-10 18:59:00,
2013-06-10 14:00:00,77.7,40.1,29.78,West,265,5.4,5.8,26,0.00,,OVC035,0.00,VWS V14.01,2013-06-10 19:00:00,
2013-06-10 14:02:00,78.1,40.4,29.78,West,267,3.1,4.0,26,0.00,,OVC035,0.00,VWS V14.01,2013-06-10 19:02:00,
2013-06-10 14:04:00,78.4,40.8,29.78,West,275,4.0,4.0,26,0.00,,OVC037,0.00,VWS V14.01,2013-06-10 19:04:00,
2013-06-10 14:05:00,78.6,40.9,29.78,WNW,288,2.7,4.0,26,0.00,,OVC037,0.00,VWS V14.01,2013-06-10 19:05:00,
2013-06-10 14:06:00,78.8,39.0,29.78,WNW,288,0.0,0.0,24,0.00,,OVC037,0.00,VWS V14.01,2013-06-10 19:06:00,
2013-06-10 14:07:00,79.3,39.5,29.78,NW,308,4.9,4.9,24,0.00,,OVC037,0.00,VWS V14.01,2013-06-10 19:07:00,
2013-06-10 14:08:00,79.2,39.3,29.78,NW,325,5.8,5.8,24,0.00,,OVC037,0.00,VWS V14.01,2013-06-10 19:08:00,
2013-06-10 14:10:00,78.8,39.0,29.78,NW,317,5.8,7.6,24,0.00,,OVC037,0.00,VWS V14.01,2013-06-10 19:10:00,
2013-06-10 14:12:00,78.3,40.6,29.78,WNW,292,8.1,8.1,26,0.00,,OVC037,0.00,VWS V14.01,2013-06-10 19:12:00,
2013-06-10 14:13:00,78.3,40.6,29.78,West,266,5.4,8.1,26,0.00,,OVC037,0.00,VWS V14.01,2013-06-10 19:13:00,
2013-06-10 14:14:00,78.3,40.6,29.78,WNW,303,4.9,5.8,26,0.00,,OVC037,0.00,VWS V14.01,2013-06-10 19:14:00,
2013-06-10 14:15:00,78.1,40.4,29.78,SW,233,4.0,5.8,26,0.00,,OVC037,0.00,VWS V14.01,2013-06-10 19:15:00,
2013-06-10 14:17:00,78.4,40.8,29.78,West,268,3.6,3.6,26,0.00,,OVC037,0.00,VWS V14.01,2013-06-10 19:17:00,
2013-06-10 14:18:00,78.4,40.8,29.78,NW,318,6.3,6.3,26,0.00,,OVC037,0.00,VWS V14.01,2013-06-10 19:18:00,
2013-06-10 14:19:00,78.8,39.0,29.78,NW,321,5.8,5.8,24,0.00,,OVC037,0.00,VWS V14.01,2013-06-10 19:19:00,
2013-06-10 14:21:00,79.2,39.3,29.78,WSW,250,3.1,6.7,24,0.00,,OVC037,0.00,VWS V14.01,2013-06-10 19:21:00,
2013-06-10 14:23:00,79.5,39.6,29.78,WNW,286,4.0,4.9,24,0.00,,OVC037,0.00,VWS V14.01,2013-06-10 19:23:00,
2013-06-10 14:24:00,79.7,39.8,29.78,NW,318,4.9,4.9,24,0.00,,OVC037,0.00,VWS V14.01,2013-06-10 19:24:00,
2013-06-10 14:25:00,79.7,39.8,29.78,West,273,4.0,4.9,24,0.00,,OVC037,0.00,VWS V14.01,2013-06-10 19:25:00,
2013-06-10 14:27:00,79.7,39.8,29.78,NNW,328,5.4,5.8,24,0.00,,OVC037,0.00,VWS V14.01,2013-06-10 19:27:00,
2013-06-10 14:29:00,80.1,40.1,29.78,NW,321,4.0,5.8,24,0.00,,OVC037,0.00,VWS V14.01,2013-06-10 19:29:00,
2013-06-10 14:30:00,79.9,39.9,29.78,NW,306,2.7,3.6,24,0.00,,OVC037,0.00,VWS V14.01,2013-06-10 19:30:00,
2013-06-10 14:33:00,80.2,40.2,29.78,NW,323,5.8,6.7,24,0.00,,OVC037,0.00,VWS V14.01,2013-06-10 19:33:00,
2013-06-10 14:35:00,79.9,39.9,29.78,NW,325,5.4,5.8,24,0.00,,OVC037,0.00,VWS V14.01,2013-06-10 19:35:00,
2013-06-10 14:36:00,79.5,39.6,29.78,North,357,5.4,8.3,24,0.00,,OVC037,0.00,VWS V14.01,2013-06-10 19:36:00,
2013-06-10 14:38:00,79.0,39.2,29.78,WNW,291,4.0,7.6,24,0.00,,OVC037,0.00,VWS V14.01,2013-06-10 19:38:00,
2013-06-10 14:40:00,79.7,39.8,29.78,NW,313,8.1,8.1,24,0.00,,OVC037,0.00,VWS V14.01,2013-06-10 19:40:00,
2013-06-10 14:41:00,79.7,39.8,29.78,WNW,302,5.8,8.1,24,0.00,,OVC037,0.00,VWS V14.01,2013-06-10 19:41:00,
2013-06-10 14:44:00,79.3,39.5,29.78,NW,306,8.7,10.1,24,0.00,,OVC037,0.00,VWS V14.01,2013-06-10 19:44:00,
2013-06-10 14:46:00,79.9,39.9,29.78,West,260,5.4,6.3,24,0.00,,OVC037,0.00,VWS V14.01,2013-06-10 19:46:00,
2013-06-10 14:47:00,79.9,39.9,29.78,West,271,2.7,5.4,24,0.00,,OVC037,0.00,VWS V14.01,2013-06-10 19:47:00,
2013-06-10 14:48:00,79.9,39.9,29.78,West,273,5.4,5.4,24,0.00,,OVC037,0.00,VWS V14.01,2013-06-10 19:48:00,
2013-06-10 14:49:00,79.9,39.9,29.78,WNW,300,4.9,6.3,24,0.00,,OVC037,0.00,VWS V14.01,2013-06-10 19:49:00,
2013-06-10 14:51:00,80.1,40.1,29.78,WNW,295,3.6,4.9,24,0.00,,OVC037,0.00,VWS V14.01,2013-06-10 19:51:00,
2013-06-10 14:53:00,80.1,40.1,29.78,NW,318,6.7,7.6,24,0.00,,OVC037,0.00,VWS V14.01,2013-06-10 19:53:00,
2013-06-10 14:54:00,79.7,39.8,29.78,WNW,300,7.6,7.6,24,0.00,,OVC037,0.00,VWS V14.01,2013-06-10 19:54:00,
2013-06-10 14:55:00,79.7,39.8,29.78,West,265,5.4,7.6,24,0.00,,OVC037,0.00,VWS V14.01,2013-06-10 19:55:00,
2013-06-10 14:57:00,79.5,39.6,29.78,NW,318,6.7,6.7,24,0.00,,OVC037,0.00,VWS V14.01,2013-06-10 19:57:00,
2013-06-10 14:59:00,79.2,39.3,29.78,NW,322,6.3,6.3,24,0.00,,OVC037,0.00,VWS V14.01,2013-06-10 19:59:00,
2013-06-10 15:02:00,79.3,39.5,29.78,WNW,283,5.8,5.8,24,0.00,,OVC037,0.00,VWS V14.01,2013-06-10 20:02:00,
2013-06-10 15:04:00,79.3,39.5,29.78,WNW,295,4.0,5.8,24,0.00,,OVC035,0.00,VWS V14.01,2013-06-10 20:04:00,
2013-06-10 15:05:00,79.3,39.5,29.78,West,275,3.1,5.8,24,0.00,,OVC035,0.00,VWS V14.01,2013-06-10 20:05:00,
2013-06-10 15:08:00,79.2,39.3,29.78,NNW,331,5.4,5.8,24,0.00,,OVC035,0.00,VWS V14.01,2013-06-10 20:08:00,
2013-06-10 15:10:00,78.4,40.8,29.78,NW,320,7.6,7.6,26,0.00,,OVC035,0.00,VWS V14.01,2013-06-10 20:10:00,
2013-06-10 15:11:00,78.4,40.8,29.78,NNW,334,5.8,7.6,26,0.00,,OVC035,0.00,VWS V14.01,2013-06-10 20:11:00,
2013-06-10 15:13:00,78.4,40.8,29.78,NNW,335,5.4,6.7,26,0.00,,OVC035,0.00,VWS V14.01,2013-06-10 20:13:00,
2013-06-10 15:14:00,78.4,40.8,29.78,NNW,343,7.6,7.6,26,0.00,,OVC035,0.00,VWS V14.01,2013-06-10 20:14:00,
2013-06-10 15:15:00,78.4,40.8,29.78,NNW,337,5.8,5.8,26,0.00,,OVC035,0.00,VWS V14.01,2013-06-10 20:15:00,
2013-06-10 15:16:00,78.8,39.0,29.78,NW,324,4.0,6.7,24,0.00,,OVC035,0.00,VWS V14.01,2013-06-10 20:16:00,
2013-06-10 15:18:00,79.0,39.2,29.78,WNW,286,5.4,7.6,24,0.00,,OVC035,0.00,VWS V14.01,2013-06-10 20:18:00,
2013-06-10 15:19:00,79.2,39.3,29.78,NW,310,8.3,8.3,24,0.00,,OVC035,0.00,VWS V14.01,2013-06-10 20:19:00,
2013-06-10 15:21:00,79.2,39.3,29.78,NNW,340,5.8,6.7,24,0.00,,OVC035,0.00,VWS V14.01,2013-06-10 20:21:00,
2013-06-10 15:22:00,78.8,39.0,29.78,NNW,333,6.7,7.6,24,0.00,,OVC035,0.00,VWS V14.01,2013-06-10 20:22:00,
2013-06-10 15:23:00,78.8,39.0,29.78,NW,323,5.8,7.6,24,0.00,,OVC035,0.00,VWS V14.01,2013-06-10 20:23:00,
2013-06-10 15:24:00,78.8,39.0,29.78,NW,321,7.6,7.6,24,0.00,,OVC035,0.00,VWS V14.01,2013-06-10 20:24:00,
2013-06-10 15:27:00,79.0,39.2,29.78,NW,314,8.3,8.3,24,0.00,,OVC035,0.00,VWS V14.01,2013-06-10 20:27:00,
2013-06-10 15:28:00,78.4,40.8,29.78,NW,325,8.1,8.3,26,0.00,,OVC035,0.00,VWS V14.01,2013-06-10 20:28:00,
2013-06-10 15:29:00,78.4,40.8,29.78,NNW,327,8.1,8.3,26,0.00,,OVC035,0.00,VWS V14.01,2013-06-10 20:29:00,
2013-06-10 15:32:00,77.7,40.1,29.78,NNW,334,10.5,10.5,26,0.00,,OVC035,0.00,VWS V14.01,2013-06-10 20:32:00,
2013-06-10 15:34:00,77.9,40.3,29.78,NW,322,8.3,10.1,26,0.00,,OVC035,0.00,VWS V14.01,2013-06-10 20:34:00,
2013-06-10 15:35:00,78.3,40.6,29.78,NW,317,9.6,10.1,26,0.00,,OVC035,0.00,VWS V14.01,2013-06-10 20:35:00,
2013-06-10 15:38:00,78.3,40.6,29.78,NW,308,5.4,8.1,26,0.00,,OVC035,0.00,VWS V14.01,2013-06-10 20:38:00,
2013-06-10 15:39:00,78.1,40.4,29.78,NW,313,5.8,5.8,26,0.00,,OVC035,0.00,VWS V14.01,2013-06-10 20:39:00,
2013-06-10 15:40:00,78.1,40.4,29.78,NW,316,9.2,9.2,26,0.00,,OVC035,0.00,VWS V14.01,2013-06-10 20:40:00,
2013-06-10 15:43:00,78.1,40.4,29.78,NNW,333,7.2,10.1,26,0.00,,OVC035,0.00,VWS V14.01,2013-06-10 20:43:00,
2013-06-10 15:44:00,78.3,40.6,29.78,NW,322,6.3,6.7,26,0.00,,OVC035,0.00,VWS V14.01,2013-06-10 20:44:00,
2013-06-10 15:45:00,78.3,40.6,29.78,NW,315,3.6,6.3,26,0.00,,OVC035,0.00,VWS V14.01,2013-06-10 20:45:00,
2013-06-10 15:47:00,78.6,40.9,29.78,NW,317,5.4,5.8,26,0.00,,OVC035,0.00,VWS V14.01,2013-06-10 20:47:00,
2013-06-10 15:48:00,78.6,40.9,29.78,WNW,290,7.6,8.7,26,0.00,,OVC035,0.00,VWS V14.01,2013-06-10 20:48:00,
2013-06-10 15:50:00,78.4,40.8,29.78,NW,313,8.3,8.7,26,0.00,,OVC035,0.00,VWS V14.01,2013-06-10 20:50:00,
2013-06-10 15:53:00,78.4,40.8,29.78,NNW,327,5.8,8.1,26,0.00,,OVC035,0.00,VWS V14.01,2013-06-10 20:53:00,
2013-06-10 15:54:00,78.4,40.8,29.78,NNW,327,5.8,5.8,26,0.00,,OVC035,0.00,VWS V14.01,2013-06-10 20:54:00,
2013-06-10 15:55:00,78.4,40.8,29.78,NNW,327,5.8,7.6,26,0.00,,OVC035,0.00,VWS V14.01,2013-06-10 20:55:00,
2013-06-10 15:59:00,78.8,39.0,29.78,NW,315,5.4,6.7,24,0.00,,OVC035,0.00,VWS V14.01,2013-06-10 20:59:00,
2013-06-10 16:00:00,78.8,39.0,29.78,WNW,299,5.4,5.8,24,0.00,,OVC035,0.00,VWS V14.01,2013-06-10 21:00:00,
2013-06-10 16:01:00,78.6,40.9,29.78,NNW,327,4.0,4.9,26,0.00,,OVC035,0.00,VWS V14.01,2013-06-10 21:01:00,
2013-06-10 16:02:00,78.3,40.6,29.78,NNW,333,5.4,7.6,26,0.00,,OVC035,0.00,VWS V14.01,2013-06-10 21:02:00,
2013-06-10 16:04:00,77.9,40.3,29.78,NNW,341,8.3,9.6,26,0.00,,BKN039,0.00,VWS V14.01,2013-06-10 21:04:00,
2013-06-10 16:05:00,77.7,40.1,29.78,NW,319,6.7,6.7,26,0.00,,BKN039,0.00,VWS V14.01,2013-06-10 21:05:00,
2013-06-10 16:07:00,77.4,39.8,29.78,NNW,327,6.3,7.2,26,0.00,,BKN039,0.00,VWS V14.01,2013-06-10 21:07:00,
2013-06-10 16:08:00,77.5,40.0,29.78,NNW,332,7.6,7.6,26,0.00,,BKN039,0.00,VWS V14.01,2013-06-10 21:08:00,
2013-06-10 16:09:00,77.7,40.1,29.78,NNW,327,4.0,5.4,26,0.00,,BKN039,0.00,VWS V14.01,2013-06-10 21:09:00,
2013-06-10 16:10:00,77.7,40.1,29.78,NNW,345,4.9,5.8,26,0.00,,BKN039,0.00,VWS V14.01,2013-06-10 21:10:00,
2013-06-10 16:12:00,77.9,40.3,29.78,NNW,340,7.6,8.7,26,0.00,,BKN039,0.00,VWS V14.01,2013-06-10 21:12:00,
2013-06-10 16:13:00,78.1,40.4,29.78,NNW,343,6.3,7.6,26,0.00,,BKN039,0.00,VWS V14.01,2013-06-10 21:13:00,
2013-06-10 16:15:00,77.9,40.3,29.78,NNW,334,5.4,6.3,26,0.00,,BKN039,0.00,VWS V14.01,2013-06-10 21:15:00,
2013-06-10 16:16:00,78.1,40.4,29.78,NNW,335,5.8,5.8,26,0.00,,BKN039,0.00,VWS V14.01,2013-06-10 21:16:00,
2013-06-10 16:18:00,78.1,40.4,29.78,North,10,2.7,3.1,26,0.00,,BKN039,0.00,VWS V14.01,2013-06-10 21:18:00,
2013-06-10 16:19:00,78.1,40.4,29.78,North,353,4.9,5.4,26,0.00,,BKN039,0.00,VWS V14.01,2013-06-10 21:19:00,
2013-06-10 16:20:00,78.3,40.6,29.78,North,9,9.2,9.2,26,0.00,,BKN039,0.00,VWS V14.01,2013-06-10 21:20:00,
2013-06-10 16:21:00,78.3,40.6,29.78,North,357,8.3,8.3,26,0.00,,BKN039,0.00,VWS V14.01,2013-06-10 21:21:00,
2013-06-10 16:23:00,78.4,40.8,29.78,NW,325,5.8,9.6,26,0.00,,BKN039,0.00,VWS V14.01,2013-06-10 21:23:00,
2013-06-10 16:24:00,78.6,40.9,29.78,NW,322,5.8,5.8,26,0.00,,BKN039,0.00,VWS V14.01,2013-06-10 21:24:00,
2013-06-10 16:26:00,78.6,40.9,29.78,NW,322,8.7,9.2,26,0.00,,BKN039,0.00,VWS V14.01,2013-06-10 21:26:00,
2013-06-10 16:27:00,78.6,40.9,29.78,NNW,331,6.3,8.1,26,0.00,,BKN039,0.00,VWS V14.01,2013-06-10 21:27:00,
2013-06-10 16:28:00,78.6,40.9,29.78,North,0,8.7,8.7,26,0.00,,BKN039,0.00,VWS V14.01,2013-06-10 21:28:00,
2013-06-10 16:31:00,78.4,40.8,29.78,North,5,10.1,10.5,26,0.00,,BKN039,0.00,VWS V14.01,2013-06-10 21:31:00,
2013-06-10 16:32:00,78.6,40.9,29.78,NNW,328,6.7,6.7,26,0.00,,BKN039,0.00,VWS V14.01,2013-06-10 21:32:00,
2013-06-10 16:33:00,78.6,40.9,29.78,North,6,5.8,6.7,26,0.00,,BKN039,0.00,VWS V14.01,2013-06-10 21:33:00,
2013-06-10 16:34:00,78.8,39.0,29.78,NNW,329,5.8,5.8,24,0.00,,BKN039,0.00,VWS V14.01,2013-06-10 21:34:00,
2013-06-10 16:36:00,78.4,40.8,29.78,NNW,346,10.1,10.1,26,0.00,,BKN039,0.00,VWS V14.01,2013-06-10 21:36:00,
2013-06-10 16:37:00,78.6,40.9,29.78,NNW,330,7.6,10.1,26,0.00,,BKN039,0.00,VWS V14.01,2013-06-10 21:37:00,
2013-06-10 16:38:00,78.6,40.9,29.78,NW,323,5.4,8.1,26,0.00,,BKN039,0.00,VWS V14.01,2013-06-10 21:38:00,
2013-06-10 16:40:00,78.6,40.9,29.78,NW,325,5.8,5.8,26,0.00,,BKN039,0.00,VWS V14.01,2013-06-10 21:40:00,
2013-06-10 16:42:00,78.8,39.0,29.78,NNW,332,5.8,7.6,24,0.00,,BKN039,0.00,VWS V14.01,2013-06-10 21:42:00,
2013-06-10 16:44:00,78.6,40.9,29.78,NW,319,5.4,5.8,26,0.00,,BKN039,0.00,VWS V14.01,2013-06-10 21:44:00,
2013-06-10 16:46:00,78.8,39.0,29.78,NW,308,6.3,8.1,24,0.00,,BKN039,0.00,VWS V14.01,2013-06-10 21:46:00,
2013-06-10 16:48:00,78.8,39.0,29.78,NW,313,3.6,4.0,24,0.00,,BKN039,0.00,VWS V14.01,2013-06-10 21:48:00,
2013-06-10 16:49:00,78.3,40.6,29.78,NW,319,6.7,6.7,26,0.00,,BKN039,0.00,VWS V14.01,2013-06-10 21:49:00,
2013-06-10 16:51:00,77.5,40.0,29.78,North,9,5.4,8.7,26,0.00,,BKN039,0.00,VWS V14.01,2013-06-10 21:51:00,
2013-06-10 16:52:00,77.5,40.0,29.78,North,357,7.6,8.3,26,0.00,,BKN039,0.00,VWS V14.01,2013-06-10 21:52:00,
2013-06-10 16:54:00,77.7,40.1,29.78,North,6,6.3,6.3,26,0.00,,BKN039,0.00,VWS V14.01,2013-06-10 21:54:00,
2013-06-10 16:55:00,77.9,40.3,29.78,North,5,8.1,8.1,26,0.00,,BKN039,0.00,VWS V14.01,2013-06-10 21:55:00,
2013-06-10 16:56:00,78.1,40.4,29.78,NNW,335,5.8,8.7,26,0.00,,BKN039,0.00,VWS V14.01,2013-06-10 21:56:00,
2013-06-10 16:58:00,78.1,40.4,29.78,North,349,6.7,7.6,26,0.00,,BKN039,0.00,VWS V14.01,2013-06-10 21:58:00,
2013-06-10 16:59:00,78.1,40.4,29.78,NNW,331,8.1,8.1,26,0.00,,BKN039,0.00,VWS V14.01,2013-06-10 21:59:00,
2013-06-10 17:01:00,78.4,40.8,29.78,NW,325,7.6,8.3,26,0.00,,BKN039,0.00,VWS V14.01,2013-06-10 22:01:00,
2013-06-10 17:03:00,78.4,40.8,29.78,NW,312,8.7,8.7,26,0.00,,CLR,0.00,VWS V14.01,2013-06-10 22:03:00,
2013-06-10 17:04:00,78.4,40.8,29.78,NW,325,7.6,8.3,26,0.00,,CLR,0.00,VWS V14.01,2013-06-10 22:04:00,
2013-06-10 17:05:00,78.4,40.8,29.78,NW,324,5.8,6.3,26,0.00,,CLR,0.00,VWS V14.01,2013-06-10 22:05:00,
2013-06-10 17:07:00,78.6,40.9,29.78,West,267,4.0,4.0,26,0.00,,CLR,0.00,VWS V14.01,2013-06-10 22:07:00,
2013-06-10 17:08:00,78.8,39.0,29.78,WNW,286,3.1,4.0,24,0.00,,CLR,0.00,VWS V14.01,2013-06-10 22:08:00,
2013-06-10 17:09:00,78.8,39.0,29.78,WNW,286,2.7,3.6,24,0.00,,CLR,0.00,VWS V14.01,2013-06-10 22:09:00,
2013-06-10 17:10:00,79.0,39.2,29.78,NW,324,4.9,4.9,24,0.00,,CLR,0.00,VWS V14.01,2013-06-10 22:10:00,
2013-06-10 17:12:00,79.2,39.3,29.78,NNE,18,7.6,8.1,24,0.00,,CLR,0.00,VWS V14.01,2013-06-10 22:12:00,
2013-06-10 17:13:00,79.3,39.5,29.78,NW,318,3.6,6.3,24,0.00,,CLR,0.00,VWS V14.01,2013-06-10 22:13:00,
2013-06-10 17:14:00,79.3,39.5,29.78,NW,322,2.7,3.6,24,0.00,,CLR,0.00,VWS V14.01,2013-06-10 22:14:00,
2013-06-10 17:16:00,79.3,39.5,29.78,NE,45,6.3,6.3,24,0.00,,CLR,0.00,VWS V14.01,2013-06-10 22:16:00,
2013-06-10 17:17:00,79.2,39.3,29.78,NNW,338,5.8,8.7,24,0.00,,CLR,0.00,VWS V14.01,2013-06-10 22:17:00,
2013-06-10 17:19:00,79.0,39.2,29.78,NNE,23,3.1,5.8,24,0.00,,CLR,0.00,VWS V14.01,2013-06-10 22:19:00,
2013-06-10 17:22:00,79.2,39.3,29.78,NW,324,5.4,5.8,24,0.00,,CLR,0.00,VWS V14.01,2013-06-10 22:22:00,
2013-06-10 17:23:00,79.2,39.3,29.78,NW,325,7.6,7.6,24,0.00,,CLR,0.00,VWS V14.01,2013-06-10 22:23:00,
2013-06-10 17:25:00,79.3,39.5,29.78,NW,326,4.9,5.8,24,0.00,,CLR,0.00,VWS V14.01,2013-06-10 22:25:00,
2013-06-10 17:28:00,79.3,39.5,29.78,NNW,328,0.0,3.6,24,0.00,,CLR,0.00,VWS V14.01,2013-06-10 22:28:00,
2013-06-10 17:30:00,79.7,39.8,29.78,NNW,328,0.0,0.0,24,0.00,,CLR,0.00,VWS V14.01,2013-06-10 22:30:00,
2013-06-10 17:32:00,80.1,40.1,29.78,NNW,342,3.1,5.8,24,0.00,,CLR,0.00,VWS V14.01,2013-06-10 22:32:00,
2013-06-10 17:34:00,80.1,40.1,29.78,NNW,336,3.6,3.6,24,0.00,,CLR,0.00,VWS V14.01,2013-06-10 22:34:00,
2013-06-10 17:35:00,79.9,39.9,29.78,NNW,332,4.9,6.3,24,0.00,,CLR,0.00,VWS V14.01,2013-06-10 22:35:00,
2013-06-10 17:38:00,79.9,39.9,29.78,North,0,4.0,4.0,24,0.00,,CLR,0.00,VWS V14.01,2013-06-10 22:38:00,
2013-06-10 17:39:00,79.7,39.8,29.78,North,9,8.1,8.1,24,0.00,,CLR,0.00,VWS V14.01,2013-06-10 22:39:00,
2013-06-10 17:41:00,79.7,39.8,29.78,NNE,26,3.6,4.5,24,0.00,,CLR,0.00,VWS V14.01,2013-06-10 22:41:00,
2013-06-10 17:43:00,79.9,39.9,29.78,NNE,28,5.8,6.3,24,0.00,,CLR,0.00,VWS V14.01,2013-06-10 22:43:00,
2013-06-10 17:44:00,79.7,39.8,29.78,NNE,14,7.6,7.6,24,0.00,,CLR,0.00,VWS V14.01,2013-06-10 22:44:00,
2013-06-10 17:46:00,79.5,39.6,29.78,North,357,8.3,8.7,24,0.00,,CLR,0.00,VWS V14.01,2013-06-10 22:46:00,
2013-06-10 17:47:00,79.5,39.6,29.78,NW,321,7.6,8.1,24,0.00,,CLR,0.00,VWS V14.01,2013-06-10 22:47:00,
2013-06-10 17:49:00,79.5,39.6,29.78,NW,322,7.6,7.6,24,0.00,,CLR,0.00,VWS V14.01,2013-06-10 22:49:00,
2013-06-10 17:50:00,79.3,39.5,29.78,NW,326,5.8,6.7,24,0.00,,CLR,0.00,VWS V14.01,2013-06-10 22:50:00,
2013-06-10 17:51:00,79.2,39.3,29.78,NNW,330,3.1,5.8,24,0.00,,CLR,0.00,VWS V14.01,2013-06-10 22:51:00,
2013-06-10 17:53:00,79.2,39.3,29.78,NW,325,5.4,5.8,24,0.00,,CLR,0.00,VWS V14.01,2013-06-10 22:53:00,
2013-06-10 17:54:00,79.2,39.3,29.78,North,9,9.2,9.2,24,0.00,,CLR,0.00,VWS V14.01,2013-06-10 22:54:00,
2013-06-10 17:55:00,79.0,39.2,29.78,NNE,24,8.1,9.2,24,0.00,,CLR,0.00,VWS V14.01,2013-06-10 22:55:00,
2013-06-10 17:58:00,79.2,39.3,29.78,NNE,33,0.0,4.0,24,0.00,,CLR,0.00,VWS V14.01,2013-06-10 22:58:00,
2013-06-10 18:00:00,79.3,39.5,29.78,NNE,13,5.4,5.4,24,0.00,,CLR,0.00,VWS V14.01,2013-06-10 23:00:00,
2013-06-10 18:01:00,79.3,39.5,29.78,NNW,335,4.0,4.0,24,0.00,,CLR,0.00,VWS V14.01,2013-06-10 23:01:00,
2013-06-10 18:03:00,79.7,39.8,29.78,NW,319,5.4,5.4,24,0.00,,CLR,0.00,VWS V14.01,2013-06-10 23:03:00,
2013-06-10 18:04:00,79.9,39.9,29.78,North,353,4.9,5.4,24,0.00,,CLR,0.00,VWS V14.01,2013-06-10 23:04:00,
2013-06-10 18:05:00,79.9,39.9,29.78,NNW,348,3.6,3.6,24,0.00,,CLR,0.00,VWS V14.01,2013-06-10 23:05:00,
2013-06-10 18:06:00,79.9,39.9,29.78,NNW,348,3.1,3.6,24,0.00,,CLR,0.00,VWS V14.01,2013-06-10 23:06:00,
2013-06-10 18:08:00,80.1,40.1,29.78,North,5,3.6,3.6,24,0.00,,CLR,0.00,VWS V14.01,2013-06-10 23:08:00,
2013-06-10 18:09:00,80.1,40.1,29.78,NW,322,3.6,4.0,24,0.00,,CLR,0.00,VWS V14.01,2013-06-10 23:09:00,
2013-06-10 18:10:00,80.2,40.2,29.78,NW,326,5.4,5.4,24,0.00,,CLR,0.00,VWS V14.01,2013-06-10 23:10:00,
2013-06-10 18:12:00,80.1,40.1,29.78,NNW,346,0.0,2.7,24,0.00,,CLR,0.00,VWS V14.01,2013-06-10 23:12:00,
2013-06-10 18:14:00,80.4,40.4,29.78,NNW,348,0.0,0.0,24,0.00,,CLR,0.00,VWS V14.01,2013-06-10 23:14:00,
2013-06-10 18:16:00,80.6,40.5,29.78,NNE,20,2.7,2.7,24,0.00,,CLR,0.00,VWS V14.01,2013-06-10 23:16:00,
2013-06-10 18:17:00,80.8,40.7,29.78,NNE,25,0.0,4.0,24,0.00,,CLR,0.00,VWS V14.01,2013-06-10 23:17:00,
2013-06-10 18:20:00,81.1,41.0,29.78,NE,44,0.0,3.1,24,0.00,,CLR,0.00,VWS V14.01,2013-06-10 23:20:00,
2013-06-10 18:21:00,81.3,41.1,29.78,NE,47,3.1,3.1,24,0.00,,CLR,0.00,VWS V14.01,2013-06-10 23:21:00,
2013-06-10 18:23:00,81.5,41.3,29.78,NNE,22,3.6,6.3,24,0.00,,CLR,0.00,VWS V14.01,2013-06-10 23:23:00,
2013-06-10 18:25:00,81.7,41.4,29.78,NNE,21,0.0,0.0,24,0.00,,CLR,0.00,VWS V14.01,2013-06-10 23:25:00,
2013-06-10 18:26:00,81.7,41.4,29.78,NNE,21,0.0,0.0,24,0.00,,CLR,0.00,VWS V14.01,2013-06-10 23:26:00,
2013-06-10 18:29:00,82.4,39.8,29.78,NNE,22,0.0,0.0,22,0.00,,CLR,0.00,VWS V14.01,2013-06-10 23:29:00,
2013-06-10 18:30:00,82.8,40.1,29.78,NNE,23,2.7,2.7,22,0.00,,CLR,0.00,VWS V14.01,2013-06-10 23:30:00,
2013-06-10 18:31:00,82.8,40.1,29.78,NNE,14,2.7,3.1,22,0.00,,CLR,0.00,VWS V14.01,2013-06-10 23:31:00,
2013-06-10 18:35:00,82.9,40.2,29.78,NNW,333,3.1,4.0,22,0.00,,CLR,0.00,VWS V14.01,2013-06-10 23:35:00,
2013-06-10 18:36:00,82.8,40.1,29.78,NNW,334,2.2,3.1,22,0.00,,CLR,0.00,VWS V14.01,2013-06-10 23:36:00,
2013-06-10 18:37:00,82.9,40.2,29.78,NNW,333,0.0,3.1,22,0.00,,CLR,0.00,VWS V14.01,2013-06-10 23:37:00,
2013-06-10 18:40:00,82.9,40.2,29.78,North,4,5.8,5.8,22,0.00,,CLR,0.00,VWS V14.01,2013-06-10 23:40:00,
2013-06-10 18:42:00,82.9,40.2,29.78,North,10,0.0,4.0,22,0.00,,CLR,0.00,VWS V14.01,2013-06-10 23:42:00,
2013-06-10 18:43:00,82.9,40.2,29.78,NNE,14,5.8,5.8,22,0.00,,CLR,0.00,VWS V14.01,2013-06-10 23:43:00,
2013-06-10 18:46:00,82.8,40.1,29.78,NNE,15,0.0,2.2,22,0.00,,CLR,0.00,VWS V14.01,2013-06-10 23:46:00,
2013-06-10 18:47:00,82.4,39.8,29.78,NNE,25,3.6,5.4,22,0.00,,CLR,0.00,VWS V14.01,2013-06-10 23:47:00,
2013-06-10 18:48:00,82.4,39.8,29.78,NNE,25,2.7,3.6,22,0.00,,CLR,0.00,VWS V14.01,2013-06-10 23:48:00,
2013-06-10 18:49:00,82.2,41.9,29.78,NNE,25,2.2,2.7,24,0.00,,CLR,0.00,VWS V14.01,2013-06-10 23:49:00,
2013-06-10 18:51:00,82.2,41.9,29.78,NNE,25,0.0,0.0,24,0.00,,CLR,0.00,VWS V14.01,2013-06-10 23:51:00,
2013-06-10 18:52:00,82.4,39.8,29.78,NNE,25,3.1,3.1,22,0.00,,CLR,0.00,VWS V14.01,2013-06-10 23:52:00,
2013-06-10 18:53:00,82.4,39.8,29.78,NNE,25,0.0,2.7,22,0.00,,CLR,0.00,VWS V14.01,2013-06-10 23:53:00,
2013-06-10 18:54:00,82.6,39.9,29.78,NNE,25,0.0,0.0,22,0.00,,CLR,0.00,VWS V14.01,2013-06-10 23:54:00,
2013-06-10 18:57:00,83.1,40.4,29.78,NW,326,4.0,4.9,22,0.00,,CLR,0.00,VWS V14.01,2013-06-10 23:57:00,
2013-06-10 18:58:00,83.1,40.4,29.78,NW,326,3.1,4.0,22,0.00,,CLR,0.00,VWS V14.01,2013-06-10 23:58:00,
2013-06-10 18:59:00,82.9,40.2,29.78,NW,326,3.1,3.1,22,0.00,,CLR,0.00,VWS V14.01,2013-06-10 23:59:00,
2013-06-10 19:01:00,82.8,40.1,29.78,NNW,328,3.6,3.6,22,0.00,,CLR,0.00,VWS V14.01,2013-06-11 00:01:00,
2013-06-10 19:02:00,82.9,40.2,29.78,NW,325,3.6,3.6,22,0.00,,CLR,0.00,VWS V14.01,2013-06-11 00:02:00,
2013-06-10 19:03:00,82.8,40.1,29.78,NW,325,2.7,2.7,22,0.00,,CLR,0.00,VWS V14.01,2013-06-11 00:03:00,
2013-06-10 19:04:00,82.8,40.1,29.78,NW,325,3.1,4.9,22,0.00,,CLR,0.00,VWS V14.01,2013-06-11 00:04:00,
2013-06-10 19:06:00,82.2,41.9,29.78,NW,325,2.7,3.1,24,0.00,,CLR,0.00,VWS V14.01,2013-06-11 00:06:00,
2013-06-10 19:07:00,81.9,41.6,29.78,NW,325,0.0,2.2,24,0.00,,CLR,0.00,VWS V14.01,2013-06-11 00:07:00,
2013-06-10 19:08:00,81.9,41.6,29.78,NW,325,0.0,2.2,24,0.00,,CLR,0.00,VWS V14.01,2013-06-11 00:08:00,
2013-06-10 19:09:00,82.0,41.7,29.78,NW,325,0.0,0.0,24,0.00,,CLR,0.00,VWS V14.01,2013-06-11 00:09:00,
2013-06-10 19:10:00,82.2,41.9,29.78,NW,325,0.0,0.0,24,0.00,,CLR,0.00,VWS V14.01,2013-06-11 00:10:00,
2013-06-10 19:11:00,82.6,39.9,29.78,NW,325,0.0,0.0,22,0.00,,CLR,0.00,VWS V14.01,2013-06-11 00:11:00,
2013-06-10 19:14:00,83.7,40.8,29.78,NW,325,0.0,0.0,22,0.00,,CLR,0.00,VWS V14.01,2013-06-11 00:14:00,
2013-06-10 19:15:00,84.0,41.1,29.78,NW,325,0.0,0.0,22,0.00,,CLR,0.00,VWS V14.01,2013-06-11 00:15:00,
2013-06-10 19:16:00,83.7,40.8,29.78,North,5,4.0,4.0,22,0.00,,CLR,0.00,VWS V14.01,2013-06-11 00:16:00,
2013-06-10 19:19:00,83.5,40.7,29.78,NW,326,0.0,0.0,22,0.00,,CLR,0.00,VWS V14.01,2013-06-11 00:19:00,
2013-06-10 19:20:00,83.5,40.7,29.78,NW,326,0.0,0.0,22,0.00,,CLR,0.00,VWS V14.01,2013-06-11 00:20:00,
2013-06-10 19:23:00,84.0,41.1,29.78,NW,326,0.0,0.0,22,0.00,,CLR,0.00,VWS V14.01,2013-06-11 00:23:00,
2013-06-10 19:24:00,84.2,41.3,29.78,NW,326,0.0,0.0,22,0.00,,CLR,0.00,VWS V14.01,2013-06-11 00:24:00,
2013-06-10 19:25:00,84.4,41.4,29.78,NW,326,0.0,0.0,22,0.00,,CLR,0.00,VWS V14.01,2013-06-11 00:25:00,
2013-06-10 19:26:00,84.7,41.7,29.78,NW,326,0.0,0.0,22,0.00,,CLR,0.00,VWS V14.01,2013-06-11 00:26:00,
2013-06-10 19:28:00,85.5,42.3,29.78,NW,326,0.0,0.0,22,0.00,,CLR,0.00,VWS V14.01,2013-06-11 00:28:00,
2013-06-10 19:30:00,86.0,42.8,29.78,NW,326,0.0,0.0,22,0.00,,CLR,0.00,VWS V14.01,2013-06-11 00:30:00,
2013-06-10 19:31:00,86.2,42.9,29.78,NW,326,0.0,0.0,22,0.00,,CLR,0.00,VWS V14.01,2013-06-11 00:31:00,
2013-06-10 19:32:00,86.4,43.1,29.78,NW,326,0.0,0.0,22,0.00,,CLR,0.00,VWS V14.01,2013-06-11 00:32:00,
2013-06-10 19:35:00,87.1,43.7,29.78,NW,326,0.0,0.0,22,0.00,,CLR,0.00,VWS V14.01,2013-06-11 00:35:00,
2013-06-10 19:36:00,87.1,43.7,29.78,NW,326,0.0,0.0,22,0.00,,CLR,0.00,VWS V14.01,2013-06-11 00:36:00,
2013-06-10 19:37:00,87.1,43.7,29.78,NW,326,0.0,0.0,22,0.00,,CLR,0.00,VWS V14.01,2013-06-11 00:37:00,
2013-06-10 19:40:00,87.6,44.1,29.75,NW,326,0.0,0.0,22,0.00,,CLR,0.00,VWS V14.01,2013-06-11 00:40:00,
2013-06-10 19:42:00,87.8,41.8,29.75,NW,326,0.0,0.0,20,0.00,,CLR,0.00,VWS V14.01,2013-06-11 00:42:00,
2013-06-10 19:43:00,88.2,42.1,29.75,NW,326,0.0,0.0,20,0.00,,CLR,0.00,VWS V14.01,2013-06-11 00:43:00,
2013-06-10 19:45:00,88.2,42.1,29.75,NW,326,0.0,0.0,20,0.00,,CLR,0.00,VWS V14.01,2013-06-11 00:45:00,
2013-06-10 19:47:00,88.3,42.2,29.75,NW,326,0.0,0.0,20,0.00,,CLR,0.00,VWS V14.01,2013-06-11 00:47:00,
2013-06-10 19:48:00,88.5,42.4,29.75,NW,326,0.0,0.0,20,0.00,,CLR,0.00,VWS V14.01,2013-06-11 00:48:00,
2013-06-10 19:49:00,88.5,42.4,29.75,NW,326,0.0,0.0,20,0.00,,CLR,0.00,VWS V14.01,2013-06-11 00:49:00,
2013-06-10 19:51:00,88.5,42.4,29.75,NW,326,0.0,0.0,20,0.00,,CLR,0.00,VWS V14.01,2013-06-11 00:51:00,
2013-06-10 19:52:00,88.5,42.4,29.75,NW,326,0.0,0.0,20,0.00,,CLR,0.00,VWS V14.01,2013-06-11 00:52:00,
2013-06-10 19:53:00,88.5,42.4,29.75,NW,326,0.0,0.0,20,0.00,,CLR,0.00,VWS V14.01,2013-06-11 00:53:00,
2013-06-10 19:55:00,88.3,42.2,29.75,NW,326,0.0,0.0,20,0.00,,CLR,0.00,VWS V14.01,2013-06-11 00:55:00,
2013-06-10 19:57:00,88.0,41.9,29.78,NW,326,0.0,0.0,20,0.00,,CLR,0.00,VWS V14.01,2013-06-11 00:57:00,
2013-06-10 19:58:00,87.8,41.8,29.78,NW,326,0.0,0.0,20,0.00,,CLR,0.00,VWS V14.01,2013-06-11 00:58:00,
2013-06-10 20:00:00,87.4,44.0,29.78,NW,326,0.0,0.0,22,0.00,,CLR,0.00,VWS V14.01,2013-06-11 01:00:00,
2013-06-10 20:01:00,87.3,43.8,29.78,NW,326,0.0,0.0,22,0.00,,CLR,0.00,VWS V14.01,2013-06-11 01:01:00,
2013-06-10 20:02:00,86.9,43.5,29.78,NW,326,0.0,0.0,22,0.00,,CLR,0.00,VWS V14.01,2013-06-11 01:02:00,
2013-06-10 20:04:00,86.4,43.1,29.78,NW,326,0.0,0.0,22,0.00,,CLR,0.00,VWS V14.01,2013-06-11 01:04:00,
2013-06-10 20:05:00,86.2,42.9,29.78,NW,326,0.0,0.0,22,0.00,,CLR,0.00,VWS V14.01,2013-06-11 01:05:00,
2013-06-10 20:06:00,85.8,42.6,29.78,NW,326,0.0,0.0,22,0.00,,CLR,0.00,VWS V14.01,2013-06-11 01:06:00,
2013-06-10 20:07:00,85.3,42.2,29.78,NW,326,0.0,0.0,22,0.00,,CLR,0.00,VWS V14.01,2013-06-11 01:07:00,
2013-06-10 20:09:00,84.7,41.7,29.78,NW,326,0.0,0.0,22,0.00,,CLR,0.00,VWS V14.01,2013-06-11 01:09:00,
2013-06-10 20:10:00,84.2,41.3,29.78,NW,326,0.0,0.0,22,0.00,,CLR,0.00,VWS V14.01,2013-06-11 01:10:00,
2013-06-10 20:11:00,83.7,40.8,29.78,NW,326,0.0,0.0,22,0.00,,CLR,0.00,VWS V14.01,2013-06-11 01:11:00,
2013-06-10 20:13:00,83.3,40.5,29.78,NW,326,0.0,0.0,22,0.00,,CLR,0.00,VWS V14.01,2013-06-11 01:13:00,
2013-06-10 20:14:00,82.8,40.1,29.78,NW,326,0.0,0.0,22,0.00,,CLR,0.00,VWS V14.01,2013-06-11 01:14:00,
2013-06-10 20:15:00,82.2,41.9,29.78,NW,326,0.0,0.0,24,0.00,,CLR,0.00,VWS V14.01,2013-06-11 01:15:00,
2013-06-10 20:17:00,81.9,41.6,29.78,NW,326,0.0,0.0,24,0.00,,CLR,0.00,VWS V14.01,2013-06-11 01:17:00,
2013-06-10 20:18:00,81.1,41.0,29.78,NW,326,0.0,0.0,24,0.00,,CLR,0.00,VWS V14.01,2013-06-11 01:18:00,
2013-06-10 20:19:00,81.0,40.8,29.78,NW,326,0.0,0.0,24,0.00,,CLR,0.00,VWS V14.01,2013-06-11 01:19:00,
2013-06-10 20:22:00,79.9,39.9,29.78,NW,326,0.0,0.0,24,0.00,,CLR,0.00,VWS V14.01,2013-06-11 01:22:00,
2013-06-10 20:24:00,79.2,39.3,29.78,NW,326,0.0,0.0,24,0.00,,CLR,0.00,VWS V14.01,2013-06-11 01:24:00,
2013-06-10 20:25:00,78.8,34.4,29.78,NW,326,0.0,0.0,20,0.00,,CLR,0.00,VWS V14.01,2013-06-11 01:25:00,
2013-06-10 20:27:00,78.1,33.8,29.78,NW,326,0.0,0.0,20,0.00,,CLR,0.00,VWS V14.01,2013-06-11 01:27:00,
2013-06-10 20:28:00,77.7,40.1,29.78,NW,326,0.0,0.0,26,0.00,,CLR,0.00,VWS V14.01,2013-06-11 01:28:00,
2013-06-10 20:29:00,77.2,39.7,29.78,NW,326,0.0,0.0,26,0.00,,CLR,0.00,VWS V14.01,2013-06-11 01:29:00,
2013-06-10 20:30:00,76.8,32.8,29.78,NW,326,0.0,0.0,20,0.00,,CLR,0.00,VWS V14.01,2013-06-11 01:30:00,
2013-06-10 20:32:00,75.9,38.6,29.78,NW,326,0.0,0.0,26,0.00,,CLR,0.00,VWS V14.01,2013-06-11 01:32:00,
2013-06-10 20:34:00,75.6,38.3,29.78,NW,326,0.0,0.0,26,0.00,,CLR,0.00,VWS V14.01,2013-06-11 01:34:00,
2013-06-10 20:35:00,74.8,37.7,29.78,NW,326,0.0,0.0,26,0.00,,CLR,0.00,VWS V14.01,2013-06-11 01:35:00,
2013-06-10 20:39:00,73.4,36.5,29.78,NW,326,0.0,0.0,26,0.00,,CLR,0.00,VWS V14.01,2013-06-11 01:39:00,
2013-06-10 20:41:00,73.0,38.0,29.78,NW,326,0.0,0.0,28,0.00,,CLR,0.00,VWS V14.01,2013-06-11 01:41:00,
2013-06-10 20:44:00,72.3,37.4,29.78,NW,326,0.0,0.0,28,0.00,,CLR,0.00,VWS V14.01,2013-06-11 01:44:00,
2013-06-10 20:45:00,72.1,37.3,29.78,NW,326,0.0,0.0,28,0.00,,CLR,0.00,VWS V14.01,2013-06-11 01:45:00,
2013-06-10 20:47:00,71.8,37.0,29.78,NW,326,0.0,0.0,28,0.00,,CLR,0.00,VWS V14.01,2013-06-11 01:47:00,
2013-06-10 20:50:00,71.2,36.5,29.78,NW,326,0.0,0.0,28,0.00,,CLR,0.00,VWS V14.01,2013-06-11 01:50:00,
2013-06-10 20:53:00,70.9,44.0,29.78,NW,326,0.0,0.0,38,0.00,,CLR,0.00,VWS V14.01,2013-06-11 01:53:00,
2013-06-10 20:54:00,70.5,43.7,29.78,NW,326,0.0,0.0,38,0.00,,CLR,0.00,VWS V14.01,2013-06-11 01:54:00,
2013-06-10 20:55:00,70.5,43.7,29.78,NW,326,0.0,0.0,38,0.00,,CLR,0.00,VWS V14.01,2013-06-11 01:55:00,
2013-06-10 20:56:00,70.3,43.5,29.78,NW,326,0.0,0.0,38,0.00,,CLR,0.00,VWS V14.01,2013-06-11 01:56:00,
2013-06-10 20:58:00,70.0,43.2,29.78,NW,326,0.0,0.0,38,0.00,,CLR,0.00,VWS V14.01,2013-06-11 01:58:00,
2013-06-10 20:59:00,69.8,43.1,29.78,NW,326,0.0,0.0,38,0.00,,CLR,0.00,VWS V14.01,2013-06-11 01:59:00,
2013-06-10 21:00:00,69.6,44.2,29.78,NW,326,0.0,0.0,40,0.00,,CLR,0.00,VWS V14.01,2013-06-11 02:00:00,
2013-06-10 21:02:00,69.6,46.8,29.78,NW,326,0.0,0.0,44,0.00,,CLR,0.00,VWS V14.01,2013-06-11 02:02:00,
2013-06-10 21:03:00,69.6,46.8,29.78,NW,326,0.0,0.0,44,0.00,,CLR,0.00,VWS V14.01,2013-06-11 02:03:00,
2013-06-10 21:05:00,69.3,46.4,29.78,NW,326,0.0,0.0,44,0.00,,CLR,0.00,VWS V14.01,2013-06-11 02:05:00,
2013-06-10 21:07:00,69.3,46.4,29.78,NW,326,0.0,0.0,44,0.00,,CLR,0.00,VWS V14.01,2013-06-11 02:07:00,
2013-06-10 21:08:00,69.3,47.6,29.78,NW,326,0.0,0.0,46,0.00,,CLR,0.00,VWS V14.01,2013-06-11 02:08:00,
2013-06-10 21:11:00,69.1,47.5,29.78,NW,326,0.0,0.0,46,0.00,,CLR,0.00,VWS V14.01,2013-06-11 02:11:00,
2013-06-10 21:12:00,69.1,47.5,29.78,NNW,327,0.0,0.0,46,0.00,,CLR,0.00,VWS V14.01,2013-06-11 02:12:00,
2013-06-10 21:13:00,69.1,47.5,29.78,NNW,327,0.0,0.0,46,0.00,,CLR,0.00,VWS V14.01,2013-06-11 02:13:00,
2013-06-10 21:14:00,69.1,47.5,29.78,NNW,327,0.0,0.0,46,0.00,,CLR,0.00,VWS V14.01,2013-06-11 02:14:00,
2013-06-10 21:16:00,68.9,47.3,29.78,NNW,327,0.0,0.0,46,0.00,,CLR,0.00,VWS V14.01,2013-06-11 02:16:00,
2013-06-10 21:17:00,68.9,47.3,29.78,NNW,327,0.0,0.0,46,0.00,,CLR,0.00,VWS V14.01,2013-06-11 02:17:00,
2013-06-10 21:18:00,68.9,47.3,29.78,NNW,327,0.0,0.0,46,0.00,,CLR,0.00,VWS V14.01,2013-06-11 02:18:00,
2013-06-10 21:19:00,68.9,47.3,29.78,NNW,327,0.0,0.0,46,0.00,,CLR,0.00,VWS V14.01,2013-06-11 02:19:00,
2013-06-10 21:21:00,68.7,47.1,29.78,NNW,327,0.0,0.0,46,0.00,,CLR,0.00,VWS V14.01,2013-06-11 02:21:00,
2013-06-10 21:23:00,68.7,47.1,29.78,NNW,327,0.0,0.0,46,0.00,,CLR,0.00,VWS V14.01,2013-06-11 02:23:00,
2013-06-10 21:24:00,68.7,47.1,29.78,NNW,327,0.0,0.0,46,0.00,,CLR,0.00,VWS V14.01,2013-06-11 02:24:00,
2013-06-10 21:25:00,68.7,47.1,29.78,NNW,327,0.0,0.0,46,0.00,,CLR,0.00,VWS V14.01,2013-06-11 02:25:00,
2013-06-10 21:27:00,68.5,47.0,29.78,NNW,327,0.0,0.0,46,0.00,,CLR,0.00,VWS V14.01,2013-06-11 02:27:00,
2013-06-10 21:28:00,68.5,47.0,29.78,NNW,327,0.0,0.0,46,0.00,,CLR,0.00,VWS V14.01,2013-06-11 02:28:00,
2013-06-10 21:29:00,68.4,46.8,29.78,NNW,327,0.0,0.0,46,0.00,,CLR,0.00,VWS V14.01,2013-06-11 02:29:00,
2013-06-10 21:30:00,68.4,46.8,29.78,NNW,327,0.0,0.0,46,0.00,,CLR,0.00,VWS V14.01,2013-06-11 02:30:00,
2013-06-10 21:33:00,68.2,46.6,29.78,NNW,327,0.0,0.0,46,0.00,,CLR,0.00,VWS V14.01,2013-06-11 02:33:00,
2013-06-10 21:34:00,68.0,46.5,29.78,NNW,327,0.0,0.0,46,0.00,,CLR,0.00,VWS V14.01,2013-06-11 02:34:00,
2013-06-10 21:35:00,67.8,47.4,29.78,NNW,327,0.0,0.0,48,0.00,,CLR,0.00,VWS V14.01,2013-06-11 02:35:00,
2013-06-10 21:37:00,67.8,47.4,29.78,NNW,327,0.0,0.0,48,0.00,,CLR,0.00,VWS V14.01,2013-06-11 02:37:00,
2013-06-10 21:38:00,67.8,47.4,29.78,NNW,327,0.0,0.0,48,0.00,,CLR,0.00,VWS V14.01,2013-06-11 02:38:00,
2013-06-10 21:39:00,67.6,47.3,29.78,ENE,59,0.0,0.0,48,0.00,,CLR,0.00,VWS V14.01,2013-06-11 02:39:00,
2013-06-10 21:40:00,67.8,47.4,29.78,ENE,59,0.0,0.0,48,0.00,,CLR,0.00,VWS V14.01,2013-06-11 02:40:00,
2013-06-10 21:42:00,67.8,48.5,29.81,ENE,59,0.0,0.0,50,0.00,,CLR,0.00,VWS V14.01,2013-06-11 02:42:00,
2013-06-10 21:43:00,67.8,48.5,29.81,ENE,59,0.0,0.0,50,0.00,,CLR,0.00,VWS V14.01,2013-06-11 02:43:00,
2013-06-10 21:45:00,67.8,48.5,29.81,ENE,58,0.0,0.0,50,0.00,,CLR,0.00,VWS V14.01,2013-06-11 02:45:00,
2013-06-10 21:47:00,67.8,48.5,29.81,ENE,59,0.0,0.0,50,0.00,,CLR,0.00,VWS V14.01,2013-06-11 02:47:00,
2013-06-10 21:49:00,67.8,48.5,29.81,ENE,59,0.0,0.0,50,0.00,,CLR,0.00,VWS V14.01,2013-06-11 02:49:00,
2013-06-10 21:50:00,67.8,48.5,29.81,ENE,59,0.0,0.0,50,0.00,,CLR,0.00,VWS V14.01,2013-06-11 02:50:00,
2013-06-10 21:52:00,67.8,48.5,29.81,ENE,59,0.0,0.0,50,0.00,,CLR,0.00,VWS V14.01,2013-06-11 02:52:00,
2013-06-10 21:54:00,67.6,48.4,29.81,ENE,59,0.0,0.0,50,0.00,,CLR,0.00,VWS V14.01,2013-06-11 02:54:00,
2013-06-10 21:55:00,67.6,48.4,29.81,ENE,59,0.0,0.0,50,0.00,,CLR,0.00,VWS V14.01,2013-06-11 02:55:00,
2013-06-10 21:56:00,67.6,48.4,29.78,ENE,58,0.0,0.0,50,0.00,,CLR,0.00,VWS V14.01,2013-06-11 02:56:00,
2013-06-10 21:58:00,67.5,48.2,29.78,ENE,58,0.0,0.0,50,0.00,,CLR,0.00,VWS V14.01,2013-06-11 02:58:00,
2013-06-10 22:00:00,67.5,48.2,29.78,ENE,59,0.0,0.0,50,0.00,,CLR,0.00,VWS V14.01,2013-06-11 03:00:00,
2013-06-10 22:01:00,67.5,48.2,29.78,ENE,59,0.0,0.0,50,0.00,,CLR,0.00,VWS V14.01,2013-06-11 03:01:00,
2013-06-10 22:02:00,67.5,49.2,29.78,ENE,78,0.0,2.7,52,0.00,,CLR,0.00,VWS V14.01,2013-06-11 03:02:00,
2013-06-10 22:03:00,67.5,49.2,29.78,East,84,2.7,3.1,52,0.00,,CLR,0.00,VWS V14.01,2013-06-11 03:03:00,
2013-06-10 22:05:00,67.6,49.4,29.78,East,85,2.2,3.1,52,0.00,,CLR,0.00,VWS V14.01,2013-06-11 03:05:00,
2013-06-10 22:06:00,67.6,49.4,29.78,East,85,2.7,2.7,52,0.00,,CLR,0.00,VWS V14.01,2013-06-11 03:06:00,
2013-06-10 22:07:00,67.6,49.4,29.78,East,85,3.1,3.1,52,0.00,,CLR,0.00,VWS V14.01,2013-06-11 03:07:00,
2013-06-10 22:08:00,67.6,50.4,29.78,East,85,2.2,3.1,54,0.00,,CLR,0.00,VWS V14.01,2013-06-11 03:08:00,
2013-06-10 22:09:00,67.5,50.2,29.78,East,85,0.0,2.7,54,0.00,,CLR,0.00,VWS V14.01,2013-06-11 03:09:00,
2013-06-10 22:10:00,67.5,50.2,29.78,East,86,2.7,2.7,54,0.00,,CLR,0.00,VWS V14.01,2013-06-11 03:10:00,
2013-06-10 22:12:00,67.3,50.1,29.81,East,86,0.0,0.0,54,0.00,,CLR,0.00,VWS V14.01,2013-06-11 03:12:00,
2013-06-10 22:13:00,67.3,50.1,29.81,East,85,0.0,0.0,54,0.00,,CLR,0.00,VWS V14.01,2013-06-11 03:13:00,
2013-06-10 22:14:00,67.3,50.1,29.81,East,86,0.0,0.0,54,0.00,,CLR,0.00,VWS V14.01,2013-06-11 03:14:00,
2013-06-10 22:15:00,67.1,49.9,29.81,East,85,0.0,0.0,54,0.00,,CLR,0.00,VWS V14.01,2013-06-11 03:15:00,
2013-06-10 22:17:00,67.1,49.9,29.81,East,86,0.0,0.0,54,0.00,,CLR,0.00,VWS V14.01,2013-06-11 03:17:00,
2013-06-10 22:18:00,67.1,49.9,29.81,East,85,0.0,0.0,54,0.00,,CLR,0.00,VWS V14.01,2013-06-11 03:18:00,
2013-06-10 22:19:00,67.1,49.9,29.81,East,85,0.0,0.0,54,0.00,,CLR,0.00,VWS V14.01,2013-06-11 03:19:00,
2013-06-10 22:20:00,67.1,49.9,29.81,East,86,2.7,2.7,54,0.00,,CLR,0.00,VWS V14.01,2013-06-11 03:20:00,
2013-06-10 22:21:00,67.1,49.9,29.81,East,85,0.0,2.2,54,0.00,,CLR,0.00,VWS V14.01,2013-06-11 03:21:00,
2013-06-10 22:22:00,67.1,49.9,29.81,East,85,0.0,0.0,54,0.00,,CLR,0.00,VWS V14.01,2013-06-11 03:22:00,
2013-06-10 22:24:00,67.1,49.9,29.81,East,86,0.0,0.0,54,0.00,,CLR,0.00,VWS V14.01,2013-06-11 03:24:00,
2013-06-10 22:25:00,67.1,49.9,29.81,East,86,0.0,0.0,54,0.00,,CLR,0.00,VWS V14.01,2013-06-11 03:25:00,
2013-06-10 22:27:00,67.1,49.9,29.81,East,86,0.0,0.0,54,0.00,,CLR,0.00,VWS V14.01,2013-06-11 03:27:00,
2013-06-10 22:29:00,67.1,49.9,29.81,East,85,0.0,0.0,54,0.00,,CLR,0.00,VWS V14.01,2013-06-11 03:29:00,
2013-06-10 22:30:00,67.1,49.9,29.81,East,86,0.0,0.0,54,0.00,,CLR,0.00,VWS V14.01,2013-06-11 03:30:00,
2013-06-10 22:31:00,67.1,49.9,29.81,East,85,0.0,0.0,54,0.00,,CLR,0.00,VWS V14.01,2013-06-11 03:31:00,
2013-06-10 22:33:00,67.1,49.9,29.81,East,85,0.0,0.0,54,0.00,,CLR,0.00,VWS V14.01,2013-06-11 03:33:00,
2013-06-10 22:34:00,67.1,49.9,29.81,East,85,0.0,0.0,54,0.00,,CLR,0.00,VWS V14.01,2013-06-11 03:34:00,
2013-06-10 22:35:00,66.9,49.8,29.81,East,85,0.0,0.0,54,0.00,,CLR,0.00,VWS V14.01,2013-06-11 03:35:00,
2013-06-10 22:36:00,66.9,49.8,29.81,East,85,0.0,0.0,54,0.00,,CLR,0.00,VWS V14.01,2013-06-11 03:36:00,
2013-06-10 22:39:00,66.9,49.8,29.81,East,85,0.0,0.0,54,0.00,,CLR,0.00,VWS V14.01,2013-06-11 03:39:00,
2013-06-10 22:41:00,66.9,49.8,29.81,East,85,0.0,0.0,54,0.00,,CLR,0.00,VWS V14.01,2013-06-11 03:41:00,
2013-06-10 22:43:00,66.9,49.8,29.81,East,85,0.0,0.0,54,0.00,,CLR,0.00,VWS V14.01,2013-06-11 03:43:00,
2013-06-10 22:44:00,66.9,49.8,29.81,East,85,0.0,0.0,54,0.00,,CLR,0.00,VWS V14.01,2013-06-11 03:44:00,
2013-06-10 22:46:00,66.9,49.8,29.81,East,86,0.0,0.0,54,0.00,,CLR,0.00,VWS V14.01,2013-06-11 03:46:00,
2013-06-10 22:47:00,66.9,49.8,29.81,East,86,0.0,0.0,54,0.00,,CLR,0.00,VWS V14.01,2013-06-11 03:47:00,
2013-06-10 22:49:00,66.9,49.8,29.81,East,86,0.0,0.0,54,0.00,,CLR,0.00,VWS V14.01,2013-06-11 03:49:00,
2013-06-10 22:50:00,66.9,49.8,29.81,East,86,0.0,0.0,54,0.00,,CLR,0.00,VWS V14.01,2013-06-11 03:50:00,
2013-06-10 22:52:00,66.7,49.6,29.81,East,86,2.2,2.7,54,0.00,,CLR,0.00,VWS V14.01,2013-06-11 03:52:00,
2013-06-10 22:54:00,66.7,49.6,29.81,East,88,2.7,2.7,54,0.00,,CLR,0.00,VWS V14.01,2013-06-11 03:54:00,
2013-06-10 22:55:00,66.7,49.6,29.81,East,88,3.1,3.1,54,0.00,,CLR,0.00,VWS V14.01,2013-06-11 03:55:00,
2013-06-10 22:58:00,66.7,49.6,29.81,East,88,2.2,2.7,54,0.00,,CLR,0.00,VWS V14.01,2013-06-11 03:58:00,
2013-06-10 22:59:00,66.7,49.6,29.81,East,88,2.7,3.1,54,0.00,,CLR,0.00,VWS V14.01,2013-06-11 03:59:00,
2013-06-10 23:01:00,66.7,49.6,29.81,East,100,3.1,3.1,54,0.00,,CLR,0.00,VWS V14.01,2013-06-11 04:01:00,
2013-06-10 23:02:00,66.7,49.6,29.81,East,100,0.0,0.0,54,0.00,,CLR,0.00,VWS V14.01,2013-06-11 04:02:00,
2013-06-10 23:06:00,66.7,49.6,29.81,East,100,3.6,3.6,54,0.00,,CLR,0.00,VWS V14.01,2013-06-11 04:06:00,
2013-06-10 23:07:00,66.7,49.6,29.81,East,101,3.1,3.6,54,0.00,,CLR,0.00,VWS V14.01,2013-06-11 04:07:00,
2013-06-10 23:08:00,66.7,49.6,29.81,East,101,3.1,3.1,54,0.00,,CLR,0.00,VWS V14.01,2013-06-11 04:08:00,
2013-06-10 23:11:00,66.7,49.6,29.81,ESE,103,2.7,2.7,54,0.00,,CLR,0.00,VWS V14.01,2013-06-11 04:11:00,
2013-06-10 23:12:00,66.7,49.6,29.81,ESE,103,2.2,2.2,54,0.00,,CLR,0.00,VWS V14.01,2013-06-11 04:12:00,
2013-06-10 23:13:00,66.7,49.6,29.81,ESE,103,2.2,2.2,54,0.00,,CLR,0.00,VWS V14.01,2013-06-11 04:13:00,
2013-06-10 23:14:00,66.6,49.4,29.81,ESE,120,2.7,3.6,54,0.00,,CLR,0.00,VWS V14.01,2013-06-11 04:14:00,
2013-06-10 23:17:00,66.6,49.4,29.81,ESE,120,3.1,3.1,54,0.00,,CLR,0.00,VWS V14.01,2013-06-11 04:17:00,
2013-06-10 23:18:00,66.6,49.4,29.81,ESE,120,2.7,3.1,54,0.00,,CLR,0.00,VWS V14.01,2013-06-11 04:18:00,
2013-06-10 23:20:00,66.6,49.4,29.81,ESE,120,2.2,2.7,54,0.00,,CLR,0.00,VWS V14.01,2013-06-11 04:20:00,
2013-06-10 23:23:00,66.4,50.2,29.81,SE,142,2.7,2.7,56,0.00,,CLR,0.00,VWS V14.01,2013-06-11 04:23:00,
2013-06-10 23:24:00,66.4,50.2,29.81,SE,142,0.0,3.1,56,0.00,,CLR,0.00,VWS V14.01,2013-06-11 04:24:00,
2013-06-10 23:25:00,66.4,50.2,29.81,SE,140,2.2,2.2,56,0.00,,CLR,0.00,VWS V14.01,2013-06-11 04:25:00,
2013-06-10 23:29:00,66.4,50.2,29.81,ESE,121,0.0,0.0,56,0.00,,CLR,0.00,VWS V14.01,2013-06-11 04:29:00,
2013-06-10 23:32:00,66.4,50.2,29.81,SE,143,3.1,3.1,56,0.00,,CLR,0.00,VWS V14.01,2013-06-11 04:32:00,
2013-06-10 23:34:00,66.4,50.2,29.81,ESE,122,3.1,3.1,56,0.00,,CLR,0.00,VWS V14.01,2013-06-11 04:34:00,
2013-06-10 23:36:00,66.4,49.2,29.81,SSE,156,3.1,4.9,54,0.00,,CLR,0.00,VWS V14.01,2013-06-11 04:36:00,
2013-06-10 23:38:00,66.6,49.4,29.81,SE,134,2.7,3.6,54,0.00,,CLR,0.00,VWS V14.01,2013-06-11 04:38:00,
2013-06-10 23:39:00,66.4,49.2,29.81,SE,138,0.0,0.0,54,0.00,,CLR,0.00,VWS V14.01,2013-06-11 04:39:00,
2013-06-10 23:40:00,66.4,49.2,29.81,SE,138,2.7,2.7,54,0.00,,CLR,0.00,VWS V14.01,2013-06-11 04:40:00,
2013-06-10 23:42:00,66.4,49.2,29.81,SE,136,2.7,3.6,54,0.00,,CLR,0.00,VWS V14.01,2013-06-11 04:42:00,
2013-06-10 23:43:00,66.2,49.1,29.81,SE,133,2.7,3.1,54,0.00,,CLR,0.00,VWS V14.01,2013-06-11 04:43:00,
2013-06-10 23:45:00,66.2,50.1,29.81,SE,133,2.7,2.7,56,0.00,,CLR,0.00,VWS V14.01,2013-06-11 04:45:00,
2013-06-10 23:47:00,66.2,50.1,29.81,SE,129,0.0,0.0,56,0.00,,CLR,0.00,VWS V14.01,2013-06-11 04:47:00,
2013-06-10 23:49:00,66.0,49.9,29.81,SE,128,0.0,2.7,56,0.00,,CLR,0.00,VWS V14.01,2013-06-11 04:49:00,
2013-06-10 23:50:00,66.0,49.9,29.81,SE,129,2.2,2.7,56,0.00,,CLR,0.00,VWS V14.01,2013-06-11 04:50:00,
2013-06-10 23:51:00,66.0,49.9,29.81,SE,129,0.0,0.0,56,0.00,,CLR,0.00,VWS V14.01,2013-06-11 04:51:00,
2013-06-10 23:54:00,66.0,49.9,29.81,SSE,148,2.2,2.7,56,0.00,,CLR,0.00,VWS V14.01,2013-06-11 04:54:00,
2013-06-10 23:55:00,66.0,49.9,29.81,SSE,148,2.2,2.7,56,0.00,,CLR,0.00,VWS V14.01,2013-06-11 04:55:00,
2013-06-10 23:56:00,66.0,50.8,29.81,SSE,148,0.0,2.7,58,0.00,,CLR,0.00,VWS V14.01,2013-06-11 04:56:00,
2013-06-10 23:59:00,65.8,50.7,29.81,SSE,148,0.0,0.0,58,0.00,,CLR,0.00,VWS V14.01,2013-06-11 04:59:00,